[{"header": {"dx": 0.06612293990616946, "dy": 0.0552356325346848, "nx": 98, "ny": 59, "la1": 35.046912555036876, "la2": 31.78801023549047, "lo1": -121.43107172385933, "lo2": -114.95102361305473, "refTime": "2026041716", "parameterCategory": 1, "parameterNumber": 2}, "data": [5.65, 4.12, 0.0, 0.0, 0.0, 0.0, 2.98, 2.98, 2.98, 3.69, 3.58, 0.0, -4.66, -7.19, -9.3, -9.58, -10.0, -10.0, -10.79, -12.27, -12.27, -12.96, -11.62, -11.02, -10.38, -11.4, -12.52, -11.18, -10.84, -10.6, -8.22, -6.7, -3.82, 0.0, 0.0, 0.0, 0.0, 0.0, 4.2, 6.95, 8.8, 7.27, 11.62, -13.41, -15.65, -17.88, -21.24, -21.06, -16.54, -12.65, -11.8, -12.16, -11.06, -11.06, -11.38, -11.06, -11.06, -11.38, -11.7, -11.7, -11.38, -8.68, -7.0, -4.81, -3.79, -5.49, -5.09, -3.59, -3.59, -4.01, -4.34, -2.22, 0.0, 0.0, 0.0, 0.0, 1.34, 1.1, 1.23, 1.23, 2.43, 3.76, 4.98, 5.08, 6.4, 7.02, 5.4, 0.0, 0.0, 0.0, 0.0, -1.01, -2.05, -2.04, -2.87, -2.72, -1.59, -1.64, 5.51, 4.12, 0.0, 0.0, 0.0, 2.5, 2.5, 2.5, 2.98, 2.98, 2.81, 0.0, -4.38, -6.94, -5.8, -8.22, -8.58, -10.8, -11.2, -10.6, -13.15, -12.71, -12.96, -12.07, -10.58, -10.96, -10.73, -10.28, -9.6, -10.8, -9.8, -7.44, -5.0, -2.6, -2.49, -2.28, -1.95, 0.0, 0.0, 7.27, 8.22, -11.62, -13.41, -15.2, -17.88, -20.56, -22.13, -18.08, -13.57, -12.65, -12.16, -12.52, -11.06, -10.75, -11.06, -13.02, -13.02, -13.02, -11.38, -11.38, -11.06, -10.75, -8.43, -5.64, -4.81, -6.16, -6.34, -4.54, -4.54, -4.67, -5.04, -2.66, 0.0, 0.0, 0.0, 0.0, 1.23, 1.1, 1.23, 1.23, 2.43, 3.76, 4.98, 5.08, 6.4, 7.02, 5.4, 0.0, 0.0, 0.0, 0.0, -1.01, -2.05, -2.04, -2.87, -2.72, -1.59, -1.64, 4.79, 3.33, 4.01, 0.0, 0.0, 2.5, 2.5, 2.5, 2.5, 2.5, 0.0, -3.14, -6.2, -4.1, 0.0, 0.0, -7.9, -9.96, -11.21, -12.58, -11.46, -12.27, -12.52, -13.41, -13.86, -10.73, -9.83, -9.33, -8.55, -8.94, -10.12, -9.12, -7.13, -5.7, -4.46, -6.64, -7.07, -8.0, -6.64, 11.62, -12.07, -13.86, -16.54, -18.78, -19.67, -18.78, -16.82, -14.11, -13.99, -13.03, -13.42, -12.52, -11.06, -13.02, -10.43, -10.75, -12.65, -12.65, -13.02, -13.02, -11.06, -8.43, -8.18, -6.6, -5.64, -7.0, -7.2, -5.98, -6.14, -6.47, -3.59, 0.0, 0.0, 0.0, 0.0, 1.34, 1.17, 2.43, 2.09, 2.24, 2.24, 3.47, 3.53, 4.65, 5.64, 6.16, 7.44, 4.08, 1.05, 0.0, 0.0, 0.0, -1.07, -1.94, -2.56, -2.43, -2.37, -1.59, 6.12, 5.37, 3.24, 3.16, 2.57, 2.5, 2.21, 2.21, 2.21, 2.15, 2.02, -2.63, -8.58, -5.6, 0.0, 0.0, -8.22, -10.4, -11.03, -11.51, -11.02, -11.18, -11.18, -11.09, -11.51, -12.96, -10.73, -8.91, -6.32, -5.46, -7.24, -8.31, -11.38, -11.38, -12.79, -12.07, -11.62, -10.18, -10.6, -12.96, -14.55, -16.37, -16.99, -15.2, -13.41, -13.86, -14.3, -14.11, -13.7, -13.03, -13.03, -12.52, -12.65, -10.75, -10.75, -10.43, -13.19, -13.59, -13.99, -12.52, -10.75, -9.12, -8.85, -8.85, -7.82, -7.82, -8.05, -8.28, -6.14, -3.59, 0.0, 0.0, 2.87, 3.93, 4.38, 4.11, 2.35, 3.18, 2.15, 2.09, 1.83, 2.11, 3.14, 3.18, 3.68, 5.0, 6.76, 5.64, 2.71, 1.2, 0.0, 0.0, -1.2, -2.09, -2.63, -3.17, -2.35, -2.43, 5.51, 4.67, 5.23, 2.65, 2.57, 2.15, 2.21, 1.94, 1.94, 3.69, 3.93, 0.0, -6.2, -5.6, -5.4, -6.7, -8.22, -11.28, -11.62, -11.62, -12.52, -12.52, -11.62, -11.62, -10.08, -12.07, -13.41, -12.52, -7.9, 0.0, 0.0, 0.0, 11.18, 0.0, -10.12, -14.75, -15.65, -13.86, -13.86, -15.65, -15.05, -12.96, -12.96, -13.41, -13.41, -13.86, -14.3, -14.47, -14.11, -14.11, -13.59, -13.19, -12.27, -10.43, -10.75, -12.65, -13.19, -14.11, -13.03, -12.16, -10.43, -10.43, -7.36, -7.59, -7.59, -8.05, -8.28, -8.05, -6.14, -6.08, 0.0, 3.16, 5.4, 10.66, 8.21, 6.3, 4.74, 3.22, 3.42, 2.81, 1.77, 1.97, 1.9, 2.82, 2.82, 3.06, 4.12, 4.81, 4.86, 0.0, 0.0, -1.46, -1.42, -1.9, -3.56, -3.25, -2.41, -2.35, 5.51, 5.96, 4.67, 5.23, 2.21, 4.3, 3.79, 3.79, 3.79, 3.69, 6.4, 7.19, 0.0, -3.96, -5.4, -6.97, -9.67, -12.07, -10.4, -5.4, -5.4, -8.22, -9.17, -12.96, -12.07, -11.62, -12.07, -12.52, -9.17, 0.0, 4.2, 8.94, 9.83, 11.18, -12.07, -13.59, -13.67, -12.52, -13.88, -11.99, -10.04, -12.39, -13.15, -13.75, -13.72, -14.11, -14.47, -14.47, -13.7, -12.79, -12.79, -11.9, -10.12, -10.12, -12.27, -13.7, -13.7, -12.65, -12.65, -12.65, -10.12, -8.66, -8.66, -8.94, -8.93, -9.17, -7.6, -6.16, -5.65, -6.28, -2.42, 0.0, 2.62, 7.06, 9.34, 9.67, 6.67, 4.58, 3.36, 3.22, 2.81, 2.53, 1.71, 1.71, 2.44, 3.23, 3.47, 3.51, 1.63, 0.0, -1.54, -1.58, -2.4, -3.41, -3.02, -2.63, -2.47, -2.41, 6.47, 5.37, 5.96, 4.54, 4.42, 3.79, 5.49, 4.95, 3.39, 5.34, 7.93, 7.78, 6.0, 0.0, 0.0, -8.22, -12.07, -8.85, -0.0, 3.82, 3.82, 4.1, 3.36, -3.36, -9.17, -10.4, -11.2, -12.07, -12.07, 0.0, 7.59, 8.0, 8.94, 9.39, -10.84, -12.3, -12.33, -11.2, -7.9, -4.6, -7.24, -9.17, -11.64, -13.2, -13.42, -12.27, -13.99, -14.53, -12.79, -13.57, -11.9, -11.9, -10.43, -12.79, -14.3, -14.03, -13.28, -13.28, -12.79, -11.17, -9.48, -8.38, -7.69, -7.76, -9.35, -7.4, -5.81, -4.81, -4.37, -3.9, -3.09, -1.61, 0.0, 2.91, 5.39, 6.26, 6.29, 4.28, 4.1, 4.08, 3.68, 3.46, 2.55, 2.64, 3.49, 3.59, 2.54, 0.0, 0.0, -1.82, -1.58, -2.89, -3.85, -3.53, -3.02, -2.54, -2.39, -2.33, 5.96, 6.31, 5.37, 5.81, 3.9, 5.49, 4.95, 4.95, 4.95, 5.34, 7.1, 6.44, 0.0, 0.0, 0.0, 0.0, -8.85, -6.0, -0.0, -0.0, 5.6, -0.0, -0.0, -2.28, -8.58, -9.17, -5.6, -0.0, 11.18, 11.18, 9.83, 10.73, 10.73, -7.59, -8.94, -9.3, -9.82, -8.22, -6.21, -2.82, -2.82, -8.53, -9.84, -9.8, -10.43, -11.7, -13.65, -14.79, -13.03, -12.65, -10.79, -11.53, -13.19, -14.3, -14.3, -14.3, -13.59, -13.15, -11.99, -10.47, -8.85, -6.94, -7.54, -7.76, -8.29, -8.03, -5.23, -2.98, -2.64, -3.42, -2.28, -1.25, 0.0, 1.02, 1.78, 1.67, 2.09, 3.36, 4.81, 5.81, 6.99, 6.27, 5.21, 4.31, 3.78, 2.25, 0.0, -2.44, -2.59, -2.47, -3.58, -3.14, -4.24, -3.53, -1.97, -1.71, -2.39, -2.33, 6.53, 5.81, 6.31, 5.23, 5.65, 4.95, 6.35, 6.35, 6.35, 6.17, 7.58, 5.11, 0.0, -4.98, -4.24, 12.96, -6.0, -7.44, -3.14, -3.96, -5.6, -5.8, -3.14, -5.31, -5.6, -8.22, -0.0, -0.0, -0.0, -0.0, -0.0, -0.0, 13.86, -9.48, -8.85, -8.38, -8.53, -7.82, -7.19, -4.65, -5.4, -8.85, -8.85, -9.48, -10.12, -10.3, -13.23, -15.14, -14.36, -12.87, -11.06, -11.16, -13.15, -13.57, -14.3, -14.3, -13.41, -12.35, -11.62, -10.73, -8.22, -9.22, -8.43, -7.76, -7.76, -8.77, -7.6, -3.79, -1.77, -1.58, -1.34, 0.0, 0.0, 1.0, 0.89, 0.0, 0.0, 1.65, 4.52, 5.65, 6.87, 6.43, 6.8, 6.8, 5.78, 2.96, 0.0, 0.0, -4.38, -4.24, -4.1, -2.45, -2.72, -2.13, -1.77, -1.6, -1.61, -2.33, 6.53, 7.03, 6.31, 6.9, 6.72, 6.54, 6.35, 5.81, 7.0, 6.8, 7.93, 7.69, 4.1, -2.54, -11.9, -13.86, -11.53, -9.8, -7.69, -6.94, -3.82, -3.96, -4.24, -0.0, -0.0, -0.0, -0.0, -0.0, -0.0, -0.0, -0.0, -0.0, -0.0, -0.0, -11.2, -8.22, -8.58, -6.95, -6.45, -6.44, -8.22, -10.04, -9.82, -9.17, -9.76, -11.16, -12.2, -13.13, -14.18, -13.46, -12.22, -12.16, -13.28, -14.03, -14.11, -14.3, -13.41, -11.84, -10.79, -8.53, -8.38, -8.51, -10.19, -8.93, -8.68, -10.59, -9.42, -8.28, -3.36, 0.0, 0.0, 1.68, 1.65, 1.34, 1.11, 0.99, 0.89, 1.61, 2.81, 4.07, 5.2, 6.81, 7.73, 7.44, 7.19, 7.24, 7.73, 10.01, 11.87, 12.52, 8.85, 3.68, 0.0, -0.93, -1.83, -1.61, -1.66, -2.41, 6.1, 6.53, 7.03, 6.31, 6.14, 5.98, 5.81, 7.0, 8.05, 7.82, 8.46, 9.8, 9.6, 3.47, -15.2, -13.86, -13.59, -12.71, -13.15, -11.53, -10.12, -10.43, -6.2, -0.0, -0.0, -0.0, -0.0, -0.0, -0.0, -0.0, -0.0, -0.0, 6.64, 5.7, -0.0, -10.41, -7.54, -7.44, -7.65, -8.85, -10.19, -10.04, -8.93, -9.08, -10.24, -10.63, -12.21, -12.52, -12.56, -12.9, -14.07, -16.12, -15.49, -16.05, -16.05, -16.86, -16.09, -12.71, -8.94, -7.36, -8.0, -7.8, -10.33, -8.93, -10.02, -12.01, -14.66, -12.96, 0.0, 0.0, 4.38, 5.31, 7.59, 3.81, 2.91, 3.65, 3.68, 3.68, 3.23, 2.64, 2.65, 4.1, 5.51, 8.4, 8.23, 9.48, 10.99, 11.85, 12.14, 11.91, 10.79, 9.3, 5.0, 1.05, -1.05, -2.05, -2.41, -2.49, 7.12, 7.6, 7.03, 7.03, 7.4, 7.2, 7.0, 7.0, 7.49, 8.4, 8.94, 9.22, 10.1, 9.39, -13.59, -13.59, -11.46, -12.07, -12.96, -12.96, -13.01, -12.39, -9.48, -0.0, -0.0, -0.0, -0.0, -0.0, 4.6, 7.59, -0.0, 7.59, 4.6, 5.7, -0.0, -10.73, -8.94, -8.69, -8.69, -9.02, -9.66, -8.82, -8.59, -8.73, -10.0, -10.55, -12.04, -12.25, -12.98, -13.19, -13.59, -15.59, -16.69, -17.19, -17.16, -18.24, -19.34, -14.57, -5.75, -3.81, -6.44, -9.54, -8.43, -7.76, -11.35, -16.37, -19.59, -18.6, -14.22, 11.38, 9.48, 11.44, 10.43, 8.94, 6.88, 6.3, 5.36, 5.55, 5.14, 4.18, 2.01, 2.0, 3.33, 7.4, 9.99, 12.33, 12.65, 11.97, 13.02, 12.45, 11.3, 9.6, 8.73, 5.99, 1.08, -1.05, -1.77, -2.49, 7.12, 7.12, 7.6, 8.13, 6.84, 6.66, 7.71, 7.49, 8.4, 9.2, 8.94, 8.94, 9.49, 10.02, 0.0, -14.39, -13.99, -13.41, -13.41, -13.86, -14.31, -14.42, -13.99, -11.38, -7.2, -6.8, -0.0, -0.0, 10.12, 12.3, 10.4, 9.6, 9.2, 7.27, -0.0, -10.41, -9.38, -9.16, -8.73, -8.64, -8.22, -7.65, -7.27, -6.3, -8.03, -9.6, -11.72, -10.79, -11.09, -11.44, -10.98, -11.26, -10.75, -10.3, -11.0, -11.27, -14.54, -13.41, -2.09, -1.38, -4.62, -6.9, -6.72, -7.0, -11.53, -15.7, -17.71, -19.23, -15.02, 0.0, 6.79, 11.7, 9.17, 9.48, 8.05, 7.36, 7.06, 7.49, 7.0, 6.66, 4.81, 3.18, 2.87, 3.21, 6.56, 11.04, 13.23, 12.52, 13.13, 13.99, 13.19, 10.8, 9.7, 9.27, 4.55, 0.0, -1.08, -1.72, 6.69, 7.12, 7.6, 7.4, 7.92, 7.71, 7.71, 8.4, 8.4, 9.39, 9.39, 9.12, 9.49, 9.39, 3.9, -11.7, -14.94, -15.34, -14.75, -14.03, -13.19, -12.65, -14.39, -14.79, -14.79, -14.39, -11.38, -0.0, 11.38, 15.2, 13.86, 11.62, 11.18, 9.83, -0.0, -10.28, -8.34, -8.79, -8.38, -8.31, -7.48, -7.13, -7.15, -4.6, -6.95, -10.28, -9.75, -10.19, -10.12, -8.83, -9.13, -8.58, -7.16, -6.6, -8.53, -8.94, -10.39, -10.66, 0.0, 0.0, -2.18, -4.95, -5.09, -6.72, -9.67, -11.43, -12.01, -12.01, -10.42, -6.26, 0.0, 9.8, 9.0, 6.44, 7.68, 7.88, 7.2, 7.4, 7.03, 7.2, 6.8, 6.29, 5.37, 4.45, 4.41, 7.37, 10.18, 11.7, 11.42, 12.65, 13.34, 10.41, 8.82, 10.55, 8.59, 1.78, 0.0, 0.0, 7.6, 8.05, 8.05, 7.4, 7.4, 8.33, 8.11, 8.11, 8.68, 9.39, 10.02, 9.39, 9.2, 9.61, 7.98, 0.0, -11.7, -15.61, -15.61, -13.99, -10.75, -8.43, -7.0, -13.99, -13.99, -15.65, -13.99, -11.38, 15.65, 15.65, 15.2, 13.41, 12.07, 10.28, 10.28, -10.28, -9.2, -7.87, -9.09, -7.68, -7.59, -7.15, -6.42, -4.4, -9.83, -0.0, -0.0, 11.18, -11.03, -9.66, -9.17, -10.01, -9.67, -10.73, -10.28, -7.9, -12.22, -7.36, -3.34, 0.0, -0.81, -2.4, -4.52, -5.67, -7.49, -8.72, -7.59, -8.06, -7.98, -8.6, -2.5, 7.21, 9.85, 7.84, 6.62, 6.34, 6.87, 6.26, 7.03, 6.31, 8.25, 8.25, 6.47, 6.56, 6.34, 5.2, 6.52, 7.21, 8.58, 10.43, 11.29, 9.88, 9.08, 9.17, 9.48, 1.21, 0.0, 0.0, 7.6, 7.4, 7.84, 7.84, 8.33, 8.33, 8.11, 8.93, 8.68, 9.39, 10.02, 10.02, 9.39, 9.77, 9.66, 7.2, 0.0, -14.79, -14.79, -9.17, -3.9, -0.0, -0.0, -10.75, -15.2, -15.2, -15.65, -15.65, -16.09, -15.65, 0.0, 13.59, 12.72, 11.18, 10.28, -6.32, -8.03, -8.37, -9.2, -8.93, -7.87, -7.56, -7.27, -4.4, 9.83, -0.0, -0.0, -0.0, -0.0, -0.0, -0.0, -8.85, -0.0, -0.0, -0.0, 4.4, 7.59, 0.0, -2.8, -2.28, -1.62, -2.06, -3.18, -4.8, -5.1, -8.57, -10.83, -9.8, -11.64, -13.28, 0.0, 6.77, 7.17, 7.83, 5.09, 4.1, 4.72, 4.12, 4.7, 6.64, 9.71, 9.71, 9.67, 7.82, 6.42, 6.42, 4.96, 4.33, 5.4, 7.43, 9.21, 7.41, 7.96, 8.83, 7.11, 3.41, 0.96, 0.96, 7.18, 7.6, 7.4, 7.84, 7.84, 8.33, 8.93, 8.93, 8.91, 10.02, 10.02, 10.02, 9.39, 9.2, 8.97, 10.47, 8.28, 7.2, 16.54, -0.0, -0.0, 3.9, 7.2, -0.0, -15.2, -16.09, -16.09, -16.09, -16.09, -16.54, -7.2, 0.0, 10.12, 8.53, 0.0, -3.65, -6.58, -8.38, -8.23, -8.43, -8.03, -6.32, -7.27, -6.32, 10.28, -0.0, -0.0, -0.0, -0.0, -0.0, -0.0, -0.0, -0.0, -0.0, 5.0, 5.0, 5.0, 6.7, 0.0, -3.53, -3.36, -2.33, -3.82, -9.39, -0.0, -0.0, -4.6, -13.05, -11.1, -4.79, 7.77, 8.4, 7.85, 5.28, 2.79, 0.0, 0.0, 1.56, 3.36, 5.27, 8.9, 9.92, 10.43, 8.4, 6.48, 5.52, 5.14, 4.99, 5.55, 7.13, 7.95, 6.44, 6.44, 6.9, 6.73, 4.28, 1.97, 1.97, 7.18, 7.18, 7.6, 7.4, 7.84, 8.67, 8.67, 9.16, 9.16, 9.54, 10.57, 10.57, 10.02, 9.39, 9.2, 10.3, 11.38, 11.38, 15.27, 14.39, 8.93, 11.38, 9.39, -0.0, -11.06, -16.09, -16.12, -16.99, -16.54, -16.54, -11.7, 0.0, 4.81, 4.1, 3.04, -2.37, -7.15, -8.73, -7.27, -7.87, -8.18, -9.6, -7.27, -10.28, -10.73, -0.0, -0.0, -0.0, -0.0, -0.0, -0.0, -0.0, -0.0, -0.0, 7.59, 7.59, 7.9, 5.0, -0.0, -3.68, -3.53, -2.95, 0.0, -0.0, -0.0, -0.0, 3.8, 9.83, -4.66, -2.57, 7.21, 11.16, 9.0, 3.09, 0.0, -2.58, -3.03, -1.31, 1.54, 4.55, 5.8, 8.0, 8.33, 5.86, 6.36, 5.93, 7.19, 6.21, 5.55, 5.92, 5.31, 5.8, 5.4, 5.6, 4.81, 3.41, 2.92, 2.92, 7.99, 7.18, 7.6, 7.6, 8.67, 8.67, 9.41, 9.41, 9.81, 9.54, 10.57, 10.57, 10.02, 9.39, 8.68, 9.24, 9.89, 11.06, 13.59, 14.42, 11.06, 9.17, 3.79, -0.0, -4.66, -11.06, -9.8, -13.59, -14.75, -14.75, -11.38, -5.09, 0.0, 0.0, 0.0, 0.0, -8.53, -11.61, -10.6, -10.73, -11.18, -10.4, -7.9, -7.9, 12.07, 11.18, -0.0, -0.0, -0.0, -0.0, -0.0, -0.0, -0.0, -0.0, 4.8, 7.59, 7.59, -0.0, 11.18, -3.53, -3.53, -2.71, 10.73, -0.0, -0.0, -0.0, -0.0, -0.0, 6.2, 14.3, 16.79, 14.22, 22.48, 0.0, -1.07, -3.43, -4.7, -3.16, -1.13, 2.44, 6.12, 7.17, 6.81, 6.47, 6.47, 7.37, 8.0, 8.27, 7.2, 5.67, 5.04, 4.38, 4.64, 4.17, 4.38, 3.47, 3.12, 3.12, 7.99, 7.99, 7.18, 7.4, 8.21, 8.67, 9.41, 10.08, 9.81, 9.81, 10.11, 10.57, 10.57, 10.02, 8.68, 8.97, 9.12, 9.44, 11.06, 15.2, -0.0, -0.0, -0.0, -0.0, -0.0, -0.0, -6.4, -9.8, -14.75, -15.65, -11.06, -7.0, -2.81, 0.0, 0.0, -4.65, -12.52, -11.61, -11.18, -11.87, -12.04, -11.2, -9.67, -7.9, -0.0, 11.62, -0.0, -0.0, -0.0, -0.0, -0.0, -0.0, -0.0, -0.0, 3.11, 4.6, -0.0, 10.28, 10.73, 0.0, 0.0, 0.0, 10.73, -0.0, -2.39, -2.39, -2.28, -0.0, 6.94, 11.52, 16.44, 18.84, 19.55, 4.91, 0.0, -1.78, -5.3, -6.38, 0.0, 3.16, 5.95, 5.95, 6.44, 5.65, 6.01, 6.31, 6.99, 6.76, 7.2, 6.0, 4.38, 4.21, 3.94, 3.81, 3.93, 3.42, 2.24, 2.24, 7.6, 7.99, 7.18, 7.78, 8.21, 8.21, 8.94, 10.08, 9.81, 9.81, 10.11, 10.57, 10.57, 10.02, 9.39, 9.47, 8.68, 8.57, 7.13, 0.0, -11.7, 15.65, -0.0, -0.0, 7.4, 7.2, -0.0, -14.3, -14.75, -15.2, -10.75, -6.6, -4.38, -3.32, -4.93, -9.77, -12.52, -11.45, -11.45, -12.04, -11.6, -11.71, -11.03, -10.8, -0.0, -0.0, -0.0, -0.0, -0.0, -0.0, -0.0, -0.0, -0.0, -0.0, -0.0, -0.0, 11.18, 11.18, 12.07, -8.22, -8.22, -8.22, -11.18, -7.9, -5.46, -3.25, -3.25, -0.0, 5.6, 12.27, 16.99, 18.96, 24.14, 0.0, 0.0, 0.0, -6.31, -7.26, -3.26, 0.0, 3.01, 4.23, 3.56, 3.68, 4.38, 5.33, 5.33, 6.98, 7.89, 6.7, 5.78, 4.66, 3.47, 2.9, 3.93, 3.09, 1.95, 1.95, 7.6, 7.6, 7.18, 7.78, 8.21, 8.94, 8.94, 10.08, 9.81, 10.4, 10.11, 10.11, 10.57, 10.02, 9.39, 9.47, 9.23, 9.12, 8.83, 8.68, 15.65, 14.75, 14.3, 15.2, 14.39, 14.79, 16.09, 14.75, -14.3, -10.12, -6.4, -3.25, -3.96, -4.75, -7.28, -10.87, -12.39, -12.07, -12.58, -12.58, -11.87, -12.07, -11.62, -10.8, -8.53, -0.0, -0.0, -0.0, -0.0, -0.0, -0.0, -0.0, -0.0, -0.0, -0.0, -0.0, -8.22, -11.2, -12.07, -11.18, -9.6, -11.18, -10.73, -7.27, -4.6, -4.6, -0.0, -0.0, 5.2, 9.17, 12.79, -14.22, -24.11, -6.64, 2.72, 1.83, -3.42, -5.8, -6.87, -2.15, 0.0, 0.97, 1.18, 2.21, 4.34, 4.66, 5.3, 7.21, 7.45, 6.53, 6.79, 5.92, 3.58, 3.32, 3.22, 3.0, 2.09, 2.09, 7.6, 7.6, 7.6, 7.78, 7.78, 8.94, 8.94, 9.61, 9.81, 10.4, 10.4, 10.11, 10.11, 10.02, 9.39, 8.93, 8.64, 8.68, 9.39, 11.38, 13.39, 13.59, 10.12, 14.3, 15.2, 15.65, 16.09, 0.0, -10.75, -10.12, -6.0, -4.1, -2.37, -4.93, -9.17, -10.87, -11.87, -12.52, -12.96, -11.87, -12.52, -12.07, -11.62, -10.8, -8.22, -0.0, -0.0, -6.95, -4.4, -0.0, -0.0, -0.0, -0.0, -0.0, -0.0, -0.0, -7.9, -9.77, -10.79, -9.83, -9.83, -7.27, -10.28, -7.27, -0.0, -0.0, -0.0, -0.0, 5.7, 6.71, 5.8, -15.19, -9.8, 0.0, 2.39, 4.81, 3.88, -3.24, -5.61, -6.35, -3.28, -1.08, 0.0, 0.0, 1.89, 3.8, 5.34, 7.0, 7.23, 7.56, 8.43, 6.64, 3.76, 2.43, 3.22, 3.93, 2.9, 2.9, 7.6, 7.6, 7.6, 6.81, 7.78, 8.51, 8.94, 9.61, 9.35, 10.4, 10.4, 10.11, 10.11, 10.11, 9.66, 8.93, 8.64, 8.05, 9.39, 10.3, 12.92, 14.39, 14.42, 13.57, 14.75, 15.2, 15.2, 0.0, -7.0, -6.8, -6.6, -4.38, -2.54, -5.6, -8.3, -10.41, -11.71, -12.96, -12.96, -12.52, -12.52, -12.07, -12.07, -10.8, -10.4, -5.0, -8.85, -5.2, -5.0, -3.39, -0.0, -0.0, -0.0, -0.0, -0.0, -0.0, -6.95, -7.44, -9.17, -3.68, 0.0, 0.0, 9.39, -0.0, -0.0, -0.0, 7.59, 8.22, 8.8, 9.75, 9.2, -15.17, -19.28, -6.26, 2.4, 6.21, 9.17, 7.78, -2.02, -4.4, -5.35, -3.0, -0.92, 0.0, 0.89, 2.72, 4.34, 6.34, 5.94, 4.61, 6.93, 6.42, 5.15, 3.76, 3.12, 3.81, 3.68, 3.68, 7.6, 7.6, 7.6, 7.6, 7.4, 7.78, 8.28, 9.35, 9.35, 10.4, 10.11, 10.11, 10.11, 10.4, 9.16, 8.93, 7.2, 7.49, 7.82, 9.35, 11.7, 13.8, 13.42, 13.59, 12.65, 13.99, 14.42, 6.8, 0.0, -6.8, -6.6, -4.66, -3.36, -6.67, -8.1, -10.01, -11.45, -12.96, -12.96, -12.52, -12.07, -12.07, -11.45, -10.4, -8.22, -8.22, -8.53, -7.9, -5.95, -5.0, -3.98, -0.0, -0.0, -0.0, -0.0, -0.0, 9.83, -2.97, -6.45, -4.58, 0.0, 0.0, 8.94, -0.0, -0.0, 4.4, 7.59, 10.0, 10.6, 9.97, 12.07, -14.57, -16.83, -9.05, 2.76, 11.9, 13.36, 12.5, 12.45, 0.0, -3.93, -4.03, -0.95, 0.0, 0.0, 1.95, 3.93, 4.24, 2.27, 0.98, 1.3, 6.02, 6.0, 4.11, 3.25, 3.94, 3.56, 3.56, 7.6, 7.6, 7.6, 7.6, 7.4, 7.4, 8.51, 8.28, 9.35, 9.09, 10.11, 10.11, 10.11, 10.4, 9.16, 8.43, 7.2, 6.47, 7.2, 8.53, 11.38, 12.36, 13.39, 13.42, 12.52, 13.59, 12.27, 10.43, 0.0, -6.6, -4.66, -4.52, -3.36, -6.0, -7.51, -10.41, -11.87, -12.52, -12.52, -12.52, -12.07, -12.07, -11.45, -11.03, -11.03, -10.4, -10.4, -10.0, -7.9, -6.2, -6.44, -3.82, -3.82, -0.0, -0.0, -0.0, -0.0, -0.0, 0.0, -4.15, -4.32, 0.0, 9.39, -0.0, -0.0, 4.4, 7.9, 9.3, 9.3, 10.18, 11.18, -8.31, -11.29, -9.13, 0.0, 12.16, 16.61, 13.59, 11.6, 11.72, 5.63, -0.95, -1.95, -1.01, 0.0, 1.97, 1.97, 1.14, 0.0, 0.0, 0.0, 3.56, 6.02, 5.04, 3.65, 3.25, 3.56, 3.56, 7.4, 7.4, 7.4, 7.4, 7.4, 7.4, 8.11, 8.28, 9.09, 9.09, 9.67, 10.11, 10.11, 10.11, 9.16, 8.43, 7.2, 6.19, 7.2, 7.82, 10.47, 11.38, 12.36, 12.22, 12.22, 12.52, 12.16, 8.18, 0.0, 0.0, 0.0, 0.0, -4.24, -7.19, -10.41, -10.04, -11.45, -11.45, -12.07, -11.62, -11.62, -11.62, -11.62, -10.4, -10.0, -10.0, -10.0, -9.6, -7.59, -7.27, -5.7, -5.52, -4.8, -3.39, -2.82, -4.8, -0.0, -0.0, 3.8, 0.0, -3.68, -5.7, 11.18, -0.0, -0.0, 4.6, 7.9, 7.9, 9.3, 9.67, 12.07, -5.6, -7.93, -7.4, -3.68, 7.96, 16.75, 14.77, 11.57, 10.0, 10.8, 4.52, 0.0, -1.82, 0.0, 0.94, 0.0, 0.0, -1.08, 0.0, 0.0, 0.0, 3.92, 5.09, 4.66, 3.94, 3.56, 3.56, 7.04, 7.04, 7.4, 7.4, 7.4, 7.4, 8.11, 8.28, 8.05, 9.09, 9.67, 9.67, 10.11, 10.4, 9.16, 8.43, 6.74, 5.09, 5.5, 7.82, 8.53, 9.66, 10.18, 11.06, 11.06, 12.22, 11.06, 9.12, 3.58, 0.0, 0.0, -4.38, -4.24, -9.17, -10.04, -10.04, -11.03, -11.03, -11.62, -11.62, -11.18, -11.18, -11.18, -10.73, -9.83, -9.83, -9.83, -9.6, -7.27, -6.95, -4.6, -7.27, -6.42, -5.95, -4.6, -3.53, -0.0, -0.0, -0.0, -0.0, -6.95, -7.27, -10.73, -0.0, -0.0, 5.2, 10.6, 10.28, 9.75, 11.03, 12.52, -3.96, -6.53, -7.15, -3.8, 2.91, 11.66, 12.46, 11.06, 10.36, 8.93, 10.69, 5.26, 0.0, 0.0, 0.0, -1.83, -3.16, -1.04, 0.0, 0.0, 0.0, 2.19, 3.42, 3.47, 4.3, 3.69, 3.69, 7.04, 7.04, 7.4, 7.4, 7.4, 7.4, 7.89, 7.89, 8.05, 8.68, 9.67, 9.67, 9.67, 9.94, 9.16, 7.63, 6.74, 5.09, 5.35, 5.81, 7.82, 8.68, 9.39, 9.09, 10.02, 9.73, 9.49, 7.82, 3.58, 0.0, 0.0, -4.38, -4.24, -9.17, -10.41, -11.45, -11.03, -11.62, -11.18, -11.18, -11.18, -11.18, -10.73, -11.18, -10.73, -9.83, -9.39, -9.83, -9.39, -9.83, -6.95, -4.4, -5.9, -6.3, -6.58, -6.14, -3.53, -0.0, -0.0, -4.4, -7.27, -10.28, -4.6, -0.0, 3.53, 8.22, 9.3, 10.28, 8.8, 10.28, 12.07, -2.28, -4.58, -5.49, -4.27, 0.0, 3.73, 6.92, 9.24, 10.89, 9.21, 9.48, 9.47, 3.58, 0.0, -1.63, -3.78, -4.1, -1.98, 0.0, 0.0, 0.0, 0.0, 0.92, 2.16, 3.05, 3.69, 3.69, 6.85, 6.85, 7.2, 7.2, 7.2, 7.2, 7.2, 7.89, 8.05, 8.68, 8.68, 9.67, 9.67, 9.67, 8.7, 7.42, 5.78, 4.95, 4.95, 5.35, 7.0, 8.68, 8.05, 7.38, 7.38, 6.8, 7.54, 6.6, 2.89, 0.0, 0.0, 0.0, -4.24, -7.19, -10.41, -11.45, -11.03, -11.18, -11.18, -11.18, -10.73, -10.73, -10.73, -0.0, -10.28, -10.73, -10.28, -8.48, -8.4, -6.95, -6.95, -0.0, -6.64, -6.64, -6.95, -6.95, -6.64, -4.83, -4.8, -4.4, -7.27, -9.2, -4.8, -0.0, 5.95, 4.8, 7.9, 11.62, 6.64, 8.8, 7.27, -2.2, -3.07, -2.58, -2.05, -1.04, 0.0, 0.0, 3.77, 8.43, 11.28, 9.67, 8.91, 7.0, 2.81, 0.0, -3.38, -4.66, -2.72, 0.0, 0.0, 0.0, -0.92, 0.0, 0.84, 1.97, 2.87, 2.87, 6.85, 6.85, 7.2, 7.2, 7.2, 7.2, 7.89, 7.89, 7.67, 8.68, 8.68, 9.67, 9.67, 9.67, 8.46, 7.42, 5.62, 4.95, 3.79, 5.35, 6.47, 7.49, 7.82, 7.82, 6.8, 6.17, 6.6, 4.05, 2.35, 0.0, 0.0, 0.0, -3.36, -7.44, -10.79, -11.87, -11.45, -11.18, -11.18, -10.73, -10.73, -10.73, -10.28, -0.0, -0.0, -7.59, -9.75, -8.91, -8.4, -6.95, -6.64, -0.0, -0.0, -6.64, -6.64, -7.64, -7.64, -7.56, -6.64, -7.27, -8.55, -9.6, -0.0, 4.8, 3.25, 4.4, 4.6, 5.4, 10.73, 0.0, 8.49, 0.0, -3.2, 0.0, 0.0, -1.41, -1.19, -1.0, 0.0, 4.03, 7.22, 6.9, 6.34, 7.0, 5.41, 2.52, -1.0, -2.57, -2.59, -1.69, -0.8, -0.84, -0.89, -0.94, 0.0, 0.85, 0.94, 0.94, 6.85, 6.85, 6.85, 7.2, 7.2, 7.2, 7.89, 7.89, 7.67, 8.68, 8.68, 9.25, 9.67, 9.67, 8.46, 7.76, 6.56, 4.6, 4.95, 4.95, 6.02, 7.0, 7.28, 7.28, 6.8, 6.6, 5.99, 3.36, 0.0, 0.0, 0.0, 0.0, -3.36, -7.44, -11.16, -10.79, -11.87, -11.62, -11.18, -10.73, -10.73, -10.73, -10.28, -7.27, -4.6, -4.6, -7.27, -8.8, -6.64, -6.64, -0.0, -0.0, -0.0, -0.0, -4.2, -7.81, -8.15, -8.15, -8.15, -8.05, -8.93, -7.59, -0.0, 3.11, 3.25, 2.28, 4.0, 5.7, 8.22, 11.18, 9.83, 10.28, 0.0, 0.0, 0.0, -3.03, -3.79, -2.81, -1.38, 0.0, 1.47, 2.94, 4.12, 5.56, 5.71, 4.23, 1.34, 0.0, -2.19, -1.58, -1.58, -1.54, -2.51, -1.68, 0.0, 0.0, 0.0, 0.0, 6.66, 6.66, 6.85, 7.2, 7.2, 7.2, 7.89, 7.89, 7.67, 8.29, 8.68, 9.25, 9.67, 9.67, 8.46, 7.76, 6.56, 5.62, 4.6, 4.6, 6.02, 6.8, 6.8, 7.28, 6.1, 6.1, 5.31, 3.1, 0.0, 0.0, 0.0, -2.2, -6.0, -7.44, -11.16, -10.79, -11.87, -12.07, -11.62, -11.18, -10.73, -10.73, -7.27, -7.27, -7.27, -7.27, -7.27, -6.95, -0.0, -0.0, -0.0, -0.0, -0.0, -0.0, -0.0, -0.0, -6.64, -8.63, -8.4, -8.05, -7.81, -0.0, -0.0, -0.0, -0.0, -0.0, -0.0, 2.17, 4.8, 8.22, 7.59, 10.73, 9.3, 2.28, -4.05, -15.02, -16.48, -13.41, -12.96, -10.12, 0.0, 0.0, 1.54, 3.04, 5.26, 5.94, 4.66, 2.94, 0.0, -1.1, -0.96, -1.57, -2.95, -3.33, -2.32, 0.0, 0.0, 0.0, 6.66, 6.66, 6.66, 6.85, 7.2, 7.2, 7.89, 7.89, 7.67, 8.29, 8.29, 8.68, 9.25, 9.67, 8.46, 7.76, 6.16, 5.26, 4.6, 5.62, 5.46, 6.37, 6.8, 6.8, 5.67, 5.04, 4.89, 4.11, 1.77, 0.0, -1.83, -2.13, -4.81, -5.8, -9.17, -10.79, -12.3, -12.52, -12.07, -11.62, -11.18, -10.73, -7.59, -7.27, -7.27, -7.27, -0.0, -0.0, -0.0, -0.0, -0.0, -0.0, -0.0, -0.0, -0.0, -0.0, -0.0, -0.0, -8.0, -7.51, -0.0, -0.0, -0.0, -0.0, -0.0, -0.0, -0.0, -0.0, -0.0, 8.22, 11.18, 12.07, 10.8, 5.31, -4.65, -25.32, -18.66, -8.0, -0.0, -0.0, 0.0, 0.0, 0.0, 1.73, 3.12, 4.45, 4.66, 4.82, 3.9, 0.0, 0.0, 0.0, -2.25, -3.52, -3.76, -0.78, 0.0, 0.0, 6.66, 6.66, 6.66, 6.66, 6.66, 7.2, 7.89, 7.67, 7.67, 8.29, 8.29, 8.43, 9.25, 9.67, 9.09, 7.76, 6.16, 5.26, 5.26, 5.11, 5.46, 6.37, 6.37, 6.6, 5.67, 4.52, 4.89, 4.11, 1.77, 0.0, -1.96, -4.1, -4.81, -5.6, -9.17, -10.79, -12.3, -12.52, -12.52, -12.07, -11.62, -11.18, -10.73, -7.27, -0.0, -0.0, -0.0, -0.0, -0.0, -0.0, -0.0, -0.0, -0.0, -0.0, -0.0, -0.0, -0.0, 4.0, 4.0, -2.83, -4.0, -0.0, -0.0, -0.0, -0.0, -0.0, -0.0, -0.0, -0.0, 5.2, 12.07, 12.52, 12.39, 12.16, 13.59, 0.0, 21.9, -0.0, 13.28, 18.33, 17.43, 0.0, 0.0, 1.83, 3.24, 4.12, 4.34, 3.49, 4.05, 0.0, 0.0, 0.0, 0.0, -1.57, -3.62, -3.51, -0.78, -0.78, 6.66, 6.66, 6.66, 6.66, 6.66, 7.32, 7.32, 7.32, 7.32, 7.93, 8.29, 8.06, 8.43, 8.68, 8.68, 8.46, 6.62, 5.11, 5.11, 5.11, 5.99, 5.99, 6.18, 6.18, 5.67, 4.52, 3.76, 2.81, 0.0, 0.0, -1.96, -4.24, -4.81, -5.6, -8.85, -10.41, -11.87, -12.52, -12.52, -12.07, -12.07, -11.62, -11.18, -10.73, -10.28, -0.0, -0.0, -0.0, -0.0, -0.0, -0.0, -0.0, -0.0, -0.0, -0.0, -0.0, 4.0, 4.0, 2.83, -0.0, -2.83, -2.83, -0.0, -3.25, -0.0, -0.0, -0.0, -0.0, -0.0, -0.0, 8.85, 12.52, 15.2, 16.05, 18.41, 18.33, 18.78, 18.39, 14.86, 0.0, 0.0, 0.0, 0.0, 1.83, 1.63, 2.89, 2.89, 3.1, 1.72, 1.96, 0.0, 0.0, 0.0, 0.0, -1.66, -3.62, -2.23, -2.23, 6.47, 6.47, 6.47, 6.47, 6.66, 7.32, 7.32, 7.32, 7.32, 7.11, 8.29, 8.06, 8.06, 8.43, 8.43, 7.82, 6.43, 5.64, 4.81, 4.81, 5.99, 5.81, 5.81, 6.18, 5.3, 4.52, 3.47, 2.48, 0.0, 0.0, -1.96, -3.68, -4.98, -5.8, -8.85, -10.41, -11.2, -11.2, -12.52, -12.07, -11.62, -11.62, 10.73, 10.73, -9.83, 10.28, 10.28, 10.28, -0.0, -0.0, -0.0, -0.0, -0.0, -0.0, -0.0, 4.0, 4.0, 4.0, 3.8, 3.8, -0.0, -0.0, -0.0, -3.25, -0.0, -0.0, -0.0, -0.0, -0.0, -0.0, 8.22, 12.96, 15.2, 17.88, 19.95, 16.79, 13.99, 9.42, 0.0, 0.0, 0.0, 0.0, 0.0, 1.96, 3.36, 3.01, 2.72, 3.01, 1.77, 1.77, 0.0, 0.0, 0.0, 1.96, 0.0, -0.86, -2.89, -3.67, 6.47, 6.47, 6.47, 6.47, 7.11, 7.11, 7.32, 7.32, 7.11, 7.11, 7.11, 7.45, 8.06, 8.43, 8.43, 7.82, 7.15, 5.64, 5.64, 5.64, 5.48, 5.48, 5.81, 5.3, 5.14, 4.52, 3.47, 1.25, 0.0, 0.0, -1.72, -3.68, -4.98, -5.8, -7.19, -8.85, -8.85, -11.2, -12.07, -12.07, -11.62, -11.62, 10.73, 10.73, -9.39, -9.83, 10.28, 10.28, -0.0, -0.0, -0.0, -0.0, -0.0, -0.0, 4.2, 4.0, 4.0, 4.0, 3.8, 6.01, 3.8, -0.0, -0.0, -4.4, -0.0, -0.0, -0.0, -0.0, -0.0, -0.0, 7.9, 12.52, 14.3, 11.7, 7.35, 10.8, 12.01, 8.93, 5.65, 0.0, -5.37, 0.0, 0.0, 2.09, 3.81, 3.36, 3.2, 3.2, 1.63, 1.63, 1.63, 1.77, 0.0, 0.0, 1.53, 0.0, -0.86, -2.89, 6.47, 6.47, 6.47, 6.47, 7.11, 7.11, 7.11, 7.11, 7.11, 7.11, 7.11, 7.45, 7.45, 8.06, 8.43, 8.43, 7.15, 6.43, 5.34, 5.34, 5.48, 5.48, 5.81, 4.96, 5.14, 4.21, 3.47, 1.25, 0.0, 0.0, -1.66, -3.68, -4.24, -5.8, -7.19, -6.94, -8.85, -11.2, -12.07, -12.07, -11.62, -11.18, 11.18, 10.28, 10.73, -9.83, 10.28, 10.28, -0.0, -0.0, -0.0, -0.0, -0.0, -0.0, 6.64, 4.2, 4.0, 3.8, 6.01, 6.01, 6.01, 3.8, -0.0, -0.0, -4.6, -4.6, -3.11, -0.0, 3.39, 5.0, 11.18, 11.62, 12.96, 10.43, -8.6, -8.34, 0.0, 11.38, 6.8, 0.0, 0.0, 0.0, 0.0, 0.0, 1.96, 3.93, 5.34, 3.3, 1.68, 1.51, 1.63, 1.63, 0.0, 0.0, 0.0, 0.0, 0.0, -0.86, 6.9, 6.9, 6.9, 6.9, 6.9, 6.9, 7.11, 7.11, 7.11, 7.11, 7.11, 7.11, 7.45, 8.06, 8.06, 8.43, 7.82, 6.43, 5.18, 5.18, 5.18, 5.48, 5.48, 4.81, 3.93, 3.22, 2.28, 1.15, 0.0, 0.0, -1.66, -3.68, -4.1, -4.81, -5.8, -7.19, -8.85, -11.2, -12.07, -11.62, -11.62, 11.18, 11.18, -0.0, -0.0, 11.18, -0.0, -0.0, -0.0, -0.0, -0.0, 6.95, 6.95, 6.95, 6.64, 6.64, 6.32, 3.8, 6.01, 6.01, 6.01, 5.69, 7.27, -0.0, -0.0, -7.27, -3.11, -0.0, 3.25, 7.9, 11.62, 11.62, 12.07, 12.52, 0.0, -11.16, -7.48, 0.0, 0.0, 0.0, 0.0, 0.0, 0.0, 0.0, 1.96, 3.93, 5.99, 5.34, 3.39, 1.56, 1.51, 1.68, 0.0, 0.0, 0.0, 0.0, 0.0, 0.0, 6.6, 6.6, 6.9, 6.9, 6.9, 6.9, 6.9, 7.11, 7.11, 7.11, 7.11, 7.11, 7.45, 8.06, 8.06, 8.06, 7.45, 6.09, 5.18, 5.18, 5.18, 5.48, 5.31, 4.52, 3.93, 3.22, 2.11, 1.15, 0.0, 0.0, -1.66, -3.68, -4.1, -4.81, -5.8, -7.19, -9.17, -8.85, -8.53, -12.07, 11.62, 11.18, 11.18, -0.0, -0.0, -0.0, -0.0, -0.0, 6.64, 6.64, 6.64, 6.64, 6.95, 6.95, 6.64, 6.64, 6.32, 6.32, 6.01, 5.69, 5.69, 5.69, 5.69, -0.0, -0.0, -0.0, -0.0, -0.0, 4.6, 9.3, 10.6, 10.73, 11.62, 11.18, 0.0, -11.38, -13.68, -12.29, -7.26, 0.0, 4.23, 3.33, 2.65, 2.72, 4.42, 4.3, 5.81, 5.99, 3.79, 1.73, 1.51, 1.51, 1.63, 0.0, 0.0, 0.0, 0.0, 0.0, 6.6, 6.6, 6.6, 6.6, 6.6, 6.9, 6.9, 6.9, 6.9, 6.9, 6.9, 6.9, 6.9, 8.06, 8.06, 8.06, 7.45, 5.91, 5.91, 5.18, 5.18, 5.18, 5.31, 4.52, 3.93, 3.0, 2.11, 1.06, 0.0, 0.0, -1.48, -1.9, -4.1, -4.81, -5.8, -5.8, -7.19, -5.6, -8.53, 12.07, 11.62, 11.62, 11.18, 10.73, -0.0, 7.59, 7.27, 6.95, 6.64, 6.64, 6.64, 8.4, 8.4, 8.4, 8.4, 8.4, 8.4, 8.0, 6.01, 5.69, 5.69, 5.69, 5.69, -0.0, -0.0, -0.0, -0.0, -0.0, 4.6, 8.93, 10.18, 10.28, 10.73, 11.03, 12.96, -14.3, -12.01, -13.39, -11.95, -5.61, 0.0, 8.8, 8.3, 6.36, 4.91, 5.65, 5.18, 5.81, 4.3, 3.39, 1.51, 1.47, 1.47, 1.58, 1.42, 1.15, 1.15, 1.15, 6.6, 6.6, 6.6, 6.6, 6.6, 6.9, 6.9, 6.9, 6.9, 6.9, 6.9, 6.9, 6.9, 7.48, 7.82, 7.82, 7.23, 6.6, 5.91, 5.18, 5.18, 5.02, 5.31, 4.52, 3.69, 3.0, 1.96, 1.06, 0.0, 0.0, 0.0, -1.9, -1.83, -2.13, -2.54, -3.04, -3.96, -5.6, 0.0, 12.07, 11.62, 11.62, 11.18, 10.73, 7.59, 7.59, 7.27, 6.95, 8.8, 8.4, 8.4, 8.4, 8.4, 8.4, 8.4, 8.4, 8.4, 8.0, 8.0, 6.01, 5.69, 5.69, 5.69, -0.0, -0.0, -0.0, -0.0, -0.0, 3.25, 7.27, 7.59, 8.8, 10.28, 11.18, 12.07, 9.17, -12.27, -12.96, -12.89, -8.91, 0.0, 5.79, 8.06, 9.6, 7.22, 7.6, 5.65, 5.18, 5.99, 3.58, 2.15, 1.33, 1.53, 1.53, 1.38, 1.25, 1.25, 1.25, 6.6, 6.6, 6.6, 6.6, 6.9, 6.9, 6.9, 6.9, 6.9, 6.9, 6.9, 6.9, 6.9, 7.48, 7.48, 7.82, 7.23, 6.6, 5.91, 5.91, 5.02, 5.02, 5.31, 4.52, 3.69, 3.0, 1.96, 1.06, 0.0, 0.0, 0.0, 0.0, -1.83, -2.13, -2.54, -3.04, 0.0, 0.0, 0.0, 0.0, 11.62, 11.62, 11.18, 10.73, 10.73, 7.27, 7.27, 9.2, 9.2, 8.8, 8.8, 8.4, 8.4, 8.4, 8.4, 8.4, 8.4, 8.0, 8.0, 7.6, 7.2, 5.37, 3.4, -0.0, -0.0, -0.0, -0.0, -0.0, -0.0, -0.0, 4.4, 4.4, 9.2, 11.18, 12.07, 12.96, 14.3, -11.06, -12.64, -8.8, -8.2, 0.0, 5.07, 8.98, 9.54, 8.0, 7.6, 7.4, 5.81, 4.66, 2.02, 1.43, 1.48, 1.33, 1.33, 2.4, 2.4, 2.4, 6.6, 6.6, 6.6, 6.6, 6.69, 6.69, 6.9, 6.9, 6.9, 6.9, 6.9, 6.9, 7.48, 7.48, 7.48, 7.82, 7.23, 6.6, 6.6, 5.91, 5.02, 5.02, 5.31, 4.52, 3.69, 3.81, 2.9, 2.11, 1.15, 0.0, 0.0, 0.0, 0.0, 0.0, 0.0, 0.0, 0.0, 0.0, 0.0, 0.0, 0.0, 11.62, 11.62, 11.18, 10.73, 10.28, 9.2, 9.2, 9.2, 9.2, 8.8, 8.8, 8.8, 8.4, 8.0, 8.0, 8.0, 8.0, 8.48, 8.06, 8.06, 7.63, 3.4, -0.0, 1.73, 6.95, -0.0, 9.39, 9.39, -0.0, 4.2, 4.4, 9.6, 11.62, 12.52, 12.96, 9.8, -6.6, -11.06, -7.6, -3.31, 0.0, 0.0, 7.37, 7.85, 7.63, 6.9, 6.54, 5.49, 3.36, 3.36, 2.91, 2.54, 1.29, 2.32, 2.13, 2.13, 2.13, 6.6, 6.6, 6.6, 6.69, 6.69, 6.69, 6.69, 6.9, 6.9, 6.9, 6.9, 7.48, 7.48, 7.48, 7.48, 7.82, 7.23, 7.23, 6.6, 6.05, 6.05, 5.31, 5.31, 4.52, 4.52, 3.81, 2.9, 2.11, 1.15, 1.21, 0.0, 0.0, 0.0, 0.0, 0.0, 0.0, 0.0, 5.4, 5.4, 0.0, 0.0, 0.0, 11.62, 11.18, 10.73, 10.28, 10.28, 10.28, 10.28, 10.28, 10.28, 10.28, 9.83, 8.8, 8.4, 8.0, 8.0, 8.48, 8.48, 8.06, 8.06, 7.63, 3.4, -0.0, -0.0, 4.2, 6.64, 9.39, 9.83, 9.39, 10.28, 9.2, 10.0, 11.62, 12.07, 11.2, 6.0, 0.0, -6.6, -3.9, -2.94, -3.16, 0.0, 3.44, 8.63, 8.35, 6.47, 5.81, 4.38, 4.24, 2.91, 2.81, 2.54, 2.54, 2.13, 2.13, 2.13, 2.13, 6.6, 6.6, 6.4, 6.69, 6.69, 6.69, 6.69, 6.9, 6.9, 6.9, 7.48, 7.48, 7.48, 7.48, 7.48, 7.48, 7.58, 7.01, 6.73, 6.05, 6.05, 6.05, 5.31, 5.31, 4.66, 3.81, 3.81, 3.12, 2.28, 1.21, 1.48, 0.0, 0.0, 2.13, 2.45, 3.04, 3.96, 5.4, 5.4, 8.53, 8.53, 8.22, 8.22, 11.18, 11.18, 10.73, 10.28, 10.28, 10.28, 10.28, 10.28, 10.28, 10.28, 9.83, 8.4, 8.4, 8.0, 8.48, 8.06, 8.06, 8.06, 7.2, -0.0, -0.0, -0.0, -0.0, 2.83, 4.2, 9.39, 9.39, 9.83, 9.83, 9.6, 11.18, 12.07, 8.85, 9.17, 0.0, 0.0, -2.98, -2.4, -4.55, -2.77, 3.44, 10.17, 7.97, 5.48, 3.98, 2.54, 3.6, 3.47, 3.82, 2.37, 2.16, 1.98, 2.06, 2.06, 2.06, 6.4, 6.4, 6.4, 6.69, 6.69, 6.69, 7.25, 6.9, 6.9, 7.48, 7.48, 7.48, 7.48, 7.48, 7.48, 7.25, 7.58, 7.01, 6.73, 6.73, 6.05, 6.4, 6.4, 5.46, 5.46, 4.66, 3.81, 3.12, 3.36, 2.4, 1.48, 1.66, 1.83, 4.1, 4.65, 5.6, 6.7, 8.53, 8.53, 8.53, 8.53, 10.4, 10.4, 10.0, 11.18, 10.73, 10.73, 10.28, 10.28, 10.28, 9.83, 9.83, 9.83, 9.83, 9.83, 9.39, 8.94, 8.94, 8.49, 8.06, 8.06, 7.2, -0.0, -0.0, -0.0, -0.0, -0.0, 2.97, 4.2, 9.39, 9.39, 6.95, 9.83, 10.73, 11.62, 12.52, 0.0, 0.0, 0.0, -2.5, -4.3, -4.12, -2.02, 0.0, 7.71, 4.94, 4.0, 3.53, 0.97, 1.0, 3.06, 2.82, 2.94, 2.08, 1.91, 2.71, 2.71, 2.71, 6.4, 6.4, 6.4, 6.69, 6.69, 7.25, 7.25, 7.25, 7.48, 7.48, 7.48, 7.48, 7.77, 8.01, 7.48, 7.25, 7.58, 7.01, 7.36, 6.73, 6.73, 7.1, 6.4, 6.2, 6.2, 5.46, 4.97, 4.08, 3.25, 3.53, 2.91, 3.14, 3.56, 5.8, 7.51, 8.85, 8.53, 10.04, 10.04, 10.04, 9.67, 11.03, 10.4, 10.0, 10.0, 10.73, 10.73, 10.73, 10.28, 10.28, 10.28, 9.83, 9.83, 9.83, 9.83, 9.83, 9.39, 8.94, 8.49, 8.49, 8.05, 8.05, 8.05, -0.0, -0.0, -0.0, -0.0, -0.0, 2.83, 4.2, 9.83, 0.0, 0.0, 0.0, 11.18, 12.07, 0.0, 0.0, 0.0, -4.66, -4.18, -3.79, -1.83, 0.0, 4.26, 3.31, 4.35, 3.88, 2.06, 0.86, 1.71, 2.71, 2.82, 1.84, 1.84, 1.7, 1.7, 1.7, 6.4, 6.4, 6.4, 6.69, 7.25, 7.25, 7.25, 7.25, 7.48, 7.48, 7.48, 7.77, 7.77, 7.77, 7.25, 7.25, 7.58, 7.01, 7.36, 7.36, 6.73, 6.73, 6.88, 6.88, 6.2, 6.57, 5.81, 4.97, 4.24, 4.58, 4.24, 4.55, 5.11, 7.82, 8.85, 10.01, 10.8, 10.8, 10.8, 10.8, 10.4, 11.03, 10.6, 10.6, 10.6, 10.6, 10.18, 10.73, 10.28, 10.28, 10.28, 9.83, 9.83, 9.83, 9.83, 9.83, 9.39, 8.94, 8.94, 8.49, 8.05, 8.05, 8.05, 8.05, -0.0, -0.0, -0.0, -0.0, -0.0, 2.97, 6.64, 9.83, 10.28, 0.0, 0.0, 0.0, 0.0, 0.0, 0.0, -2.2, -3.93, -3.69, 0.0, 0.0, 0.0, 1.71, 3.01, 4.35, 3.58, 1.9, 0.83, 1.71, 1.9, 1.77, 1.7, 1.7, 1.7, 1.7, 6.4, 6.4, 6.4, 7.25, 7.25, 7.25, 7.25, 7.25, 7.25, 7.25, 7.77, 7.77, 7.77, 7.77, 7.25, 7.58, 7.58, 7.58, 7.36, 7.36, 7.36, 6.73, 6.88, 6.88, 7.26, 6.57, 6.57, 6.2, 6.42, 6.0, 6.51, 6.87, 7.54, 8.85, 9.77, 10.35, 11.21, 11.21, 10.79, 10.79, 11.28, 11.28, 10.84, 10.84, 10.6, 10.6, 10.18, 10.18, 10.28, 10.28, 9.83, 9.83, 9.83, 9.83, 9.83, 9.83, 9.39, 9.39, 8.94, 8.94, 8.49, 8.05, 8.05, 5.69, 5.69, -0.0, -0.0, -0.0, -0.0, 3.11, 4.4, 6.95, 10.28, 10.73, 0.0, 5.0, 0.0, 0.0, -2.63, -4.24, -5.46, -3.69, 0.0, -3.33, -2.23, 0.0, 3.36, 2.72, 3.69, 3.25, 1.71, 1.6, 0.93, 0.86, 1.7, 1.7, 1.7, 1.7, 6.95, 6.95, 6.95, 7.25, 7.25, 7.25, 7.25, 7.25, 7.25, 7.77, 7.77, 7.77, 7.77, 8.1, 8.1, 7.58, 7.58, 7.58, 7.93, 7.93, 7.36, 7.36, 7.49, 6.88, 7.26, 7.26, 7.69, 6.76, 7.2, 7.69, 7.19, 7.78, 9.17, 9.62, 10.41, 10.8, 10.8, 11.45, 10.79, 10.79, 11.4, 11.4, 10.84, 10.84, 10.84, 10.84, 10.41, 10.18, 9.75, 9.75, 9.33, 9.33, 9.33, 9.33, 9.83, 9.39, 9.39, 9.39, 8.94, 8.94, 8.49, 8.49, 7.63, 7.2, 8.05, 2.54, 1.4, 1.05, 1.69, 2.49, 4.8, 4.6, 7.27, 10.28, 7.59, 5.7, 2.82, 0.0, -4.1, -3.68, -4.71, -5.18, -5.16, -6.72, -2.49, 0.0, 1.54, 2.72, 3.36, 2.93, 2.51, 1.7, 1.0, 1.0, 1.91, 1.84, 1.84, 1.84, 6.95, 6.95, 6.95, 7.25, 7.25, 7.25, 7.77, 7.77, 7.77, 7.77, 7.77, 7.77, 8.1, 8.1, 8.1, 7.58, 7.58, 8.1, 7.93, 7.93, 7.93, 7.74, 7.49, 7.89, 7.89, 8.31, 8.31, 7.89, 8.38, 8.38, 7.96, 9.17, 9.84, 10.19, 10.87, 10.8, 10.8, 10.4, 11.03, 11.03, 11.46, 11.4, 10.96, 10.96, 10.84, 10.41, 10.41, 9.97, 9.75, 9.75, 9.33, 9.33, 9.33, 8.91, 8.91, 8.91, 8.91, 9.39, 9.39, 8.94, 8.49, 8.49, 8.05, 7.63, 8.05, 3.6, 1.58, 1.2, 1.05, 2.1, 3.39, 4.8, 9.6, 10.28, 9.2, 7.27, 7.27, 2.28, -2.06, -4.55, -4.71, -7.0, -6.59, -7.07, -5.7, 0.0, 1.45, 2.5, 2.82, 2.21, 2.71, 1.98, 2.06, 2.16, 2.16, 2.16, 2.16, 2.16, 6.73, 6.73, 7.25, 7.25, 7.25, 7.25, 7.77, 7.77, 7.77, 7.77, 7.77, 8.1, 8.1, 8.1, 8.1, 8.1, 8.1, 8.46, 8.46, 8.46, 7.93, 8.31, 8.31, 7.89, 7.89, 8.31, 8.49, 8.49, 8.97, 8.91, 9.17, 9.76, 10.01, 10.19, 10.87, 10.48, 10.48, 10.68, 11.18, 11.03, 11.46, 11.46, 11.02, 10.96, 10.96, 10.52, 10.41, 9.97, 9.97, 9.97, 9.33, 9.33, 9.33, 8.91, 8.91, 8.91, 8.91, 8.91, 8.91, 8.94, 8.94, 8.49, 8.49, 7.81, 7.2, 8.05, 3.6, 2.69, 2.33, 2.02, 2.49, 4.6, 8.8, 9.83, 9.2, 5.7, 5.9, 6.44, 2.28, -1.77, -4.71, -6.6, -7.08, -5.52, -5.04, -2.12, 0.0, 2.58, 3.02, 2.61, 2.93, 2.06, 1.97, 2.4, 2.32, 2.54, 2.54, 2.54, 6.73, 6.73, 7.25, 7.25, 7.25, 7.77, 7.77, 7.77, 7.77, 7.77, 7.77, 8.1, 8.1, 8.1, 8.1, 8.1, 8.46, 8.46, 8.46, 8.46, 8.84, 8.56, 8.45, 8.45, 8.87, 8.87, 9.32, 9.48, 8.97, 9.17, 9.69, 10.23, 10.41, 10.61, 10.61, 10.8, 10.48, 11.09, 11.18, 11.18, 11.51, 11.46, 11.02, 11.02, 10.52, 10.52, 10.52, 9.97, 9.97, 9.54, 9.54, 8.8, 8.8, 7.81, 7.81, 8.91, 8.91, 8.91, 8.48, 8.48, 8.67, 8.24, 8.49, 7.89, 7.63, 8.05, 6.01, 3.15, 2.69, 2.02, 2.02, 5.7, 6.95, 9.39, 8.8, 5.46, 4.4, 5.9, 5.52, -2.06, -3.68, -5.63, -6.72, -6.97, -6.07, -4.48, 0.0, 1.44, 2.31, 2.71, 2.71, 2.92, 3.12, 2.48, 2.4, 2.54, 2.54, 2.54, 7.03, 7.03, 7.03, 7.03, 7.25, 7.77, 7.77, 7.77, 7.77, 7.77, 8.1, 8.1, 8.1, 8.1, 8.46, 8.2, 8.2, 8.2, 8.84, 9.31, 9.31, 8.95, 8.95, 9.36, 9.36, 9.8, 9.32, 9.48, 9.97, 10.12, 10.62, 11.12, 10.41, 10.94, 10.94, 10.24, 10.8, 11.3, 11.18, 11.18, 11.18, 11.51, 11.02, 11.02, 10.58, 10.52, 10.52, 10.08, 9.97, 9.54, 8.8, 8.8, 8.8, 8.4, 7.81, 8.91, 8.91, 8.48, 8.67, 8.67, 8.67, 8.24, 8.33, 7.89, 7.81, 7.63, 8.49, 4.71, 3.15, 2.83, 4.0, 4.8, 7.27, 9.39, 9.39, 6.95, 5.46, 4.4, 8.58, 5.4, 0.0, -5.31, -7.98, -8.9, -8.56, -6.51, -1.82, 0.0, 2.4, 3.22, 2.81, 3.14, 3.25, 3.98, 2.63, 2.54, 2.54, 2.54, 7.03, 7.03, 7.03, 7.53, 7.53, 7.53, 7.53, 7.53, 7.53, 7.85, 7.85, 7.85, 7.85, 8.2, 8.2, 8.2, 8.2, 8.56, 8.56, 9.02, 9.4, 9.4, 9.4, 9.8, 9.8, 9.8, 10.25, 9.92, 10.38, 10.48, 10.62, 10.62, 10.73, 10.41, 10.94, 10.55, 10.8, 11.3, 11.3, 11.18, 11.18, 10.75, 10.75, 11.02, 10.58, 10.18, 9.55, 10.08, 9.13, 9.13, 9.13, 9.13, 8.4, 8.4, 8.4, 8.4, 8.0, 8.0, 8.0, 8.0, 8.67, 8.24, 8.33, 8.33, 8.33, 8.06, 8.49, 8.06, 6.01, 5.36, 4.83, 6.71, 7.27, 9.6, 9.39, 8.8, 6.95, 5.7, 7.59, 8.22, 6.94, 0.0, -7.76, -8.68, -10.4, -8.2, -3.82, 0.0, 1.24, 2.21, 3.32, 4.43, 4.81, 4.81, 3.85, 3.73, 3.73, 3.73, 7.53, 7.53, 7.53, 7.53, 7.53, 7.53, 7.53, 7.53, 7.99, 8.31, 7.85, 7.85, 7.85, 8.2, 8.2, 8.2, 8.56, 8.56, 8.56, 9.4, 9.4, 9.4, 9.8, 9.8, 10.22, 10.22, 10.65, 10.38, 10.38, 10.85, 10.94, 10.62, 11.12, 10.73, 10.94, 10.94, 11.03, 11.3, 11.3, 10.88, 11.28, 10.75, 10.75, 10.18, 10.18, 10.18, 9.75, 9.75, 9.13, 9.13, 9.13, 9.13, 8.72, 8.4, 8.4, 8.4, 8.0, 8.0, 8.0, 8.0, 8.0, 7.89, 7.89, 8.33, 8.33, 8.24, 8.06, 8.49, 7.44, 6.32, 7.15, 6.64, 6.98, 10.6, 9.39, 8.8, 6.95, 5.7, 4.8, 6.97, 6.94, 0.0, -9.73, -9.42, -10.35, -10.14, -4.04, 0.0, 1.37, 2.52, 4.01, 3.88, 4.81, 6.51, 6.51, 6.2, 6.2, 6.2, 7.53, 7.53, 7.53, 7.53, 7.53, 7.53, 7.53, 7.53, 7.99, 8.31, 7.85, 7.85, 7.85, 8.2, 8.2, 8.2, 8.56, 8.56, 8.56, 9.4, 9.4, 9.4, 9.8, 9.8, 10.22, 10.22, 10.65, 10.38, 10.38, 10.85, 10.94, 10.62, 11.12, 10.73, 10.94, 10.94, 11.03, 11.3, 11.3, 10.88, 11.28, 10.75, 10.75, 10.18, 10.18, 10.18, 9.75, 9.75, 9.13, 9.13, 9.13, 9.13, 8.72, 8.4, 8.4, 8.4, 8.0, 8.0, 8.0, 8.0, 8.0, 7.89, 7.89, 8.33, 8.33, 8.24, 8.06, 8.49, 7.44, 6.32, 7.15, 6.64, 6.98, 10.6, 9.39, 8.8, 3.25, 5.7, 4.8, 6.97, 6.94, -4.24, -9.44, -9.88, -9.36, -8.77, -3.6, 0.0, 1.65, 3.01, 3.01, 4.59, 5.98, 5.63, 7.34, 7.58, 7.58, 7.58]}, {"header": {"dx": 0.06612293990616946, "dy": 0.0552356325346848, "nx": 98, "ny": 59, "la1": 35.046912555036876, "la2": 31.78801023549047, "lo1": -121.43107172385933, "lo2": -114.95102361305473, "refTime": "2026041716", "parameterCategory": 1, "parameterNumber": 3}, "data": [-16.96, -16.48, -16.54, -16.09, -15.65, -15.2, -14.9, -14.9, -14.9, -14.75, -14.31, -13.86, -13.99, -10.79, -6.97, -5.75, -5.0, -5.0, -4.32, -2.45, -2.45, -0.0, -0.0, 1.84, 4.15, 2.28, -0.0, -0.0, -2.71, -3.53, -8.22, -10.04, -11.45, -11.62, -10.73, -10.28, -10.28, -9.83, -8.4, -6.95, -4.4, -7.27, 0.0, -0.0, -0.0, -0.0, -3.03, -6.02, -5.51, -7.59, -8.85, -9.12, -11.06, -11.06, -11.38, -11.06, -11.06, -11.38, -11.7, -11.7, -11.38, -13.02, -13.99, -14.42, -15.18, -14.65, -15.27, -16.15, -16.15, -16.05, -17.35, -17.74, -16.54, -14.75, -14.75, -14.75, -14.69, -14.26, -14.7, -14.7, -14.55, -13.8, -12.45, -11.44, -10.24, -9.82, -10.8, -11.62, -11.62, -11.62, -13.41, -15.17, -16.41, -17.31, -17.2, -16.31, -15.12, -15.56, -16.54, -16.48, -16.54, -16.09, -15.65, -14.99, -14.99, -14.99, -14.9, -14.9, -14.03, -15.2, -13.15, -10.41, -11.6, -8.22, -6.44, -5.4, -5.6, -3.53, -2.63, -2.54, -0.0, -0.0, 1.76, 2.19, -0.0, -0.0, -4.8, -5.4, -9.8, -11.16, -10.0, -10.41, -9.97, -9.11, -7.81, -8.49, -8.49, -7.27, -8.22, -0.0, -0.0, -0.0, -0.0, -0.0, -3.16, -3.01, -4.52, -7.59, -9.12, -9.39, -11.06, -10.75, -11.06, -8.68, -8.68, -8.68, -11.38, -11.38, -11.06, -10.75, -12.65, -14.11, -14.42, -14.38, -14.79, -15.9, -15.9, -16.33, -17.62, -18.59, -16.54, -14.3, -14.3, -14.75, -14.7, -14.26, -14.7, -14.7, -14.55, -13.8, -12.45, -11.44, -10.24, -9.82, -10.8, -11.62, -11.62, -11.62, -13.41, -15.17, -16.41, -17.31, -17.2, -16.31, -15.12, -15.56, -16.76, -16.66, -16.05, -16.09, -15.65, -14.99, -14.99, -14.99, -14.99, -14.99, -14.3, -12.58, -12.39, -12.3, -11.62, -11.18, -7.9, -3.98, -4.48, -3.14, -1.91, -2.45, -0.0, -0.0, -0.0, -0.0, -0.0, -3.11, -5.7, -6.71, -10.12, -12.16, -11.88, -8.55, -6.7, -6.64, -4.71, -4.0, -6.64, 0.0, -0.0, -0.0, -0.0, -0.0, -0.0, -0.0, -2.4, -2.35, -4.66, -7.82, -8.05, -9.39, -11.06, -8.68, -10.43, -10.75, -8.43, -8.43, -8.68, -8.68, -11.06, -12.65, -12.27, -13.19, -14.11, -13.99, -14.39, -14.94, -15.36, -16.19, -17.97, -18.33, -16.09, -14.3, -14.3, -14.69, -15.15, -14.55, -14.6, -14.58, -14.58, -13.88, -12.94, -11.62, -10.16, -9.86, -8.93, -10.88, -11.57, -12.07, -15.65, -16.54, -16.06, -15.53, -14.53, -14.55, -15.01, -15.12, -16.32, -16.12, -16.22, -15.78, -15.43, -14.99, -15.49, -15.49, -15.49, -15.05, -14.16, -13.15, -11.44, -11.2, -12.07, -11.62, -8.22, -5.2, -3.68, -1.64, -1.84, -0.0, -0.0, -1.39, -1.64, -0.0, -0.0, -2.97, -6.32, -8.18, -9.66, -11.09, -11.38, -11.38, -6.4, -0.0, -0.0, 3.39, 3.53, -0.0, 2.43, 2.34, -0.0, -0.0, -0.0, -0.0, -0.0, -2.35, -5.48, -7.82, -7.82, -9.39, -8.43, -10.75, -10.75, -10.43, -6.6, -6.8, -7.0, -9.39, -10.75, -12.16, -11.8, -11.8, -13.03, -13.03, -13.42, -13.8, -15.36, -17.97, -19.67, -19.22, -17.2, -13.75, -13.15, -13.7, -14.11, -14.86, -15.05, -14.6, -13.74, -13.7, -12.58, -11.64, -11.03, -10.0, -9.46, -10.16, -10.84, -15.6, -17.88, -16.99, -15.6, -14.6, -13.15, -13.49, -14.11, -14.55, -16.54, -16.33, -15.69, -15.87, -15.43, -15.05, -15.49, -15.53, -15.53, -14.75, -13.75, -13.41, -12.39, -11.2, -10.8, -10.04, -8.22, -2.82, -0.0, -0.0, -0.0, -0.0, -0.0, -0.0, -2.02, -0.0, -0.0, -0.0, -7.9, -9.83, -10.73, -11.18, 0.0, -12.52, -10.12, -0.0, -0.0, -0.0, -0.0, -0.0, -2.15, -0.0, -0.0, -0.0, -0.0, -0.0, -0.0, -2.89, -5.64, -5.64, -6.8, -6.6, -8.18, -10.43, -10.75, -8.43, -6.6, -5.64, -7.82, -9.12, -10.43, -10.43, -12.27, -12.65, -12.65, -13.42, -13.8, -13.42, -15.36, -18.24, -22.35, -22.13, -18.91, -15.99, -14.36, -11.33, -13.02, -13.94, -14.81, -14.03, -13.29, -12.81, -12.37, -11.28, -10.35, -11.21, -11.34, -11.55, -15.81, -18.33, -17.43, -16.03, -15.58, -12.37, -12.46, -13.01, -13.65, -14.11, -16.54, -15.91, -16.33, -15.69, -15.49, -15.04, -15.18, -15.18, -15.18, -14.75, -12.79, -10.79, -13.41, -11.87, -10.8, -9.3, -6.45, -0.0, 5.2, 10.8, 10.8, 8.22, 9.17, -0.0, -0.0, -0.0, -0.0, -0.0, -9.17, -12.52, -8.4, 0.0, 0.0, 0.0, -0.0, -2.72, -2.28, -0.0, -3.47, -6.0, -6.7, -6.2, -4.38, -1.72, -1.96, -2.35, -2.89, -2.89, -5.48, -6.4, -6.4, -7.93, -10.12, -10.12, -8.18, -5.48, -5.48, -7.59, -7.59, -7.59, -10.12, -10.82, -10.82, -11.17, -13.39, -13.76, -15.19, -14.38, -15.07, -16.74, -21.77, -23.69, -23.55, -18.84, -16.8, -14.51, -11.12, -12.6, -13.44, -13.94, -12.2, -11.8, -11.95, -11.95, -11.36, -12.09, -13.88, -17.53, -19.6, -18.78, -16.92, -17.36, -13.19, -12.51, -13.07, -13.15, -13.18, -13.65, -16.19, -16.12, -15.91, -15.9, -15.47, -15.18, -14.65, -14.84, -15.27, -14.23, -11.9, -10.37, -11.99, -12.52, -12.96, -8.22, -0.0, 8.85, 12.07, 11.45, 11.45, 12.3, 13.44, 13.44, 9.17, 5.2, 5.6, -0.0, -0.0, -10.73, -7.59, -4.0, 0.0, 0.0, -2.71, -4.1, -5.28, -5.6, -7.9, -9.2, -9.66, -9.17, -8.31, -7.54, -8.05, -8.18, -7.0, -5.81, -6.4, -4.52, -7.93, -7.93, -10.43, -6.4, -0.0, -2.81, -5.31, -5.31, -6.4, -8.94, -9.48, -10.47, -11.53, -13.58, -13.1, -14.79, -15.49, -14.42, -14.56, -15.61, -18.52, -20.95, -21.46, -20.36, -17.52, -16.27, -13.84, -11.76, -12.3, -13.25, -11.96, -12.96, -13.62, -14.97, -15.71, -17.06, -19.05, -19.67, -19.67, -18.24, -17.36, -14.47, -12.85, -12.94, -13.07, -12.71, -12.74, -13.21, -16.38, -15.77, -16.12, -15.49, -15.61, -14.65, -14.84, -14.84, -14.84, -14.23, -12.42, -10.73, -12.96, -12.96, -13.41, -11.62, 8.85, 11.99, 12.52, 12.52, 11.2, 12.52, 13.41, 13.67, 11.44, 9.17, 11.2, 12.52, 0.0, 0.0, 0.0, 0.0, 0.0, -7.59, -6.71, -6.2, -7.02, -8.22, -10.35, -11.28, -11.28, -8.53, -8.44, -9.8, -10.43, -11.7, -8.53, -6.34, -7.82, -8.43, -7.19, -7.69, -6.6, -0.0, -0.0, -0.0, -2.72, -4.38, -6.0, -8.38, -8.85, -10.41, -13.2, -13.58, -13.27, -14.46, -15.69, -14.9, -14.51, -14.81, -15.93, -18.73, -19.22, -17.4, -15.09, -14.21, -14.6, -13.44, -12.52, -13.56, -14.99, -14.33, -14.75, -15.51, -17.02, -19.09, -20.12, -19.52, -18.14, -17.26, -14.31, -12.58, -12.72, -12.94, -12.81, -11.95, -12.74, -13.21, -15.68, -15.96, -15.77, -15.69, -15.07, -14.84, -14.3, -14.3, -14.3, -13.89, -12.13, -11.92, -14.75, -12.45, -12.72, 0.0, 11.99, 11.16, 12.58, 11.87, 11.2, 11.6, 12.58, 13.28, 11.2, 8.22, 10.28, 10.73, 12.07, 11.18, 11.62, 13.41, 0.0, -9.48, -8.85, -6.7, -8.53, -9.77, -10.79, -11.62, -10.8, -8.85, -8.85, -9.48, -10.12, -9.27, -9.92, -8.65, -8.21, -9.66, -11.06, -7.44, -4.38, -4.52, -0.0, -0.0, -0.0, -2.06, -4.65, -6.44, -8.22, -11.52, -12.65, -13.58, -13.58, -14.03, -15.19, -15.18, -14.19, -14.22, -14.69, -16.54, -18.78, -16.06, -14.28, -13.86, -13.41, -12.41, -13.57, -15.07, -16.02, -13.77, -13.59, -13.59, -15.02, -16.27, -16.54, -15.2, -13.15, -12.72, -12.3, -12.27, -12.22, -12.79, -12.39, -11.96, -12.86, -13.21, -15.68, -15.46, -15.77, -15.52, -15.11, -14.71, -14.3, -14.53, -13.99, -13.59, -11.9, -11.53, -12.3, -12.71, -7.93, -0.0, 7.69, 9.8, 11.53, 10.41, 11.45, 11.87, 12.72, 14.3, 14.3, 11.18, 9.83, 11.18, 13.41, 13.41, 13.41, 14.75, 15.2, 13.86, -5.6, -8.22, -6.44, -6.95, -9.67, -10.73, -8.22, -6.7, -7.02, -7.14, -7.1, -7.44, -6.57, -7.66, -8.51, -9.61, -9.77, -9.12, -5.31, -2.81, -2.35, -0.0, -0.0, -2.37, -4.32, -8.53, -10.47, -14.18, -13.59, -13.39, -13.02, -12.71, -14.13, -13.8, -13.44, -13.41, -13.86, -15.11, -16.46, -14.69, -13.36, -12.93, -12.48, -12.86, -12.66, -14.64, -16.64, -17.02, -12.56, -11.69, -10.79, -9.66, -9.27, -7.51, -3.96, 0.0, -8.85, -11.03, -12.07, -12.03, -13.74, -12.86, -13.31, -13.65, -15.85, -15.68, -15.46, -15.77, -15.36, -14.94, -14.53, -13.99, -13.42, -13.03, -12.09, -11.03, -11.2, -13.88, -0.0, -0.0, 2.72, 2.54, 2.63, 7.69, 10.12, 10.43, 12.39, 12.96, 13.41, 11.62, 12.52, 12.52, 13.86, 14.75, 13.86, 11.18, 6.64, 8.55, 12.07, -6.94, -9.42, -8.93, -8.75, -8.85, -7.28, -6.7, -7.44, -7.26, -6.4, -5.72, -4.36, -4.81, -6.85, -7.16, -7.82, -5.37, -5.81, -4.01, -4.01, -2.11, -0.0, -2.54, -6.71, -12.27, -15.99, -15.59, -12.92, -13.39, -12.02, -12.01, -11.0, -12.96, -15.65, -12.52, -13.15, -13.28, -12.65, -13.32, -13.09, -13.37, -11.96, -11.96, -12.09, -14.06, -15.87, -17.41, -16.54, -13.2, -10.59, -9.48, -7.69, -5.27, -3.04, -1.98, -4.32, -6.97, -10.0, -11.57, -14.71, -16.41, -13.65, -14.09, -15.42, -15.19, -15.46, -15.46, -14.79, -14.39, -13.99, -13.99, -13.74, -13.2, -12.29, -11.52, -11.36, -12.52, -6.8, -2.72, -1.91, -0.0, -0.0, -0.0, 3.25, 6.2, 9.48, 15.2, 13.41, 12.07, 11.62, 9.39, 9.2, 7.59, 10.73, 7.59, 9.2, 8.55, 10.28, -0.0, -6.71, -7.72, -7.72, -8.02, -7.24, -7.56, -7.15, -6.98, -5.0, -4.87, -4.81, -5.45, -4.87, -6.6, -6.8, -7.8, -7.58, -8.6, -7.63, -6.08, -5.53, -8.74, -9.58, -13.32, -17.16, -16.69, -14.75, -13.58, -13.24, -11.69, -9.8, -12.4, -14.22, -11.38, -9.48, -8.58, -10.43, -11.17, -12.03, -11.33, -11.8, -12.21, -13.35, -14.61, -15.07, -15.97, -16.66, -14.79, -13.74, -12.33, -8.43, -6.98, -5.92, -4.98, -4.24, -4.8, -6.98, -10.48, -12.92, -14.71, -14.19, -14.09, -15.42, -15.42, -15.19, -14.91, -15.06, -14.65, -14.13, -13.74, -13.2, -12.65, -12.29, -12.29, -11.87, -12.02, -16.09, -7.2, -4.66, -0.0, -0.0, -0.0, 3.58, 4.81, 7.0, 11.38, 14.39, 13.59, 14.75, 14.75, 10.12, 4.1, 5.2, 4.8, 4.6, 7.27, 10.28, 2.6, -5.21, -6.41, -6.98, -7.78, -8.22, -8.75, -8.49, -7.56, -6.42, -4.8, -6.51, -7.19, -8.31, -8.58, -8.45, -9.53, -10.75, -12.36, -14.66, -15.02, -14.54, -17.88, -14.6, -12.44, -15.41, -15.52, -15.11, -13.99, -14.82, -13.96, -15.74, -16.03, -20.03, -25.03, -20.36, -11.7, -9.17, -9.48, -10.73, -12.27, -12.95, -13.74, -13.99, -14.65, -14.42, -14.86, -16.29, -17.14, -14.21, -13.49, -12.03, -9.39, -7.66, -7.0, -6.6, -5.4, -5.54, -7.73, -12.14, -16.09, -15.16, -13.75, -15.61, -15.42, -15.19, -14.79, -14.52, -14.13, -14.13, -13.2, -13.2, -12.52, -12.52, -12.16, -11.87, -12.52, -15.61, -11.7, -5.98, -3.07, -0.0, 2.81, 6.6, 8.43, 7.2, 7.4, 7.4, 7.2, 11.38, 16.09, 11.38, 0.0, 0.0, 0.0, 0.0, 0.0, 9.83, -0.0, -5.21, -6.15, -6.7, -7.48, -8.31, -8.02, -8.59, -9.2, -6.95, -0.0, -3.25, -7.28, -10.12, -10.09, -10.43, -11.44, -12.9, -13.19, -13.65, -13.91, -11.69, -17.06, -21.46, -13.41, -14.14, -14.84, -15.27, -15.11, -14.51, -12.57, -12.01, -15.01, -18.24, -21.92, -25.48, -19.59, -14.4, -10.73, -12.07, -13.51, -14.39, -14.79, -15.46, -14.39, -13.59, -13.84, -16.12, -17.78, -15.01, -15.8, -14.7, -11.7, -9.34, -8.43, -7.28, -6.94, -7.56, -7.54, -10.3, -15.99, -14.75, -13.41, -15.19, -14.96, -14.96, -14.79, -14.79, -14.29, -13.9, -13.9, -13.02, -12.52, -12.02, -12.52, -12.65, -12.35, -13.97, -16.54, -11.7, -3.9, 3.9, 7.0, 10.75, 12.65, 13.99, 7.0, 7.0, -0.0, 7.0, 11.38, 0.0, 0.0, 0.0, 0.0, 0.0, 0.0, 0.0, -0.0, -5.52, -5.9, -6.5, -6.83, -7.59, -8.59, -8.03, -8.8, -0.0, 9.83, 10.28, 0.0, -3.68, -7.24, -9.17, -7.51, -6.45, -0.0, -0.0, -7.9, -9.77, -13.81, -18.93, -17.88, -12.94, -13.19, -13.57, -13.62, -13.74, -12.45, -12.65, -12.89, -13.97, -17.19, -19.96, -21.63, -18.05, -14.56, -14.18, -14.79, -16.02, -16.27, -15.46, -15.77, -14.85, -14.85, -14.24, -14.21, -14.79, -16.64, -15.2, -12.36, -11.44, -10.43, -8.78, -7.68, -7.95, -9.17, -9.48, -13.36, -12.96, -12.96, -15.19, -14.79, -14.56, -14.56, -14.29, -14.29, -13.9, -13.39, -13.02, -12.52, -12.02, -12.02, -12.52, -12.22, -12.87, -14.39, -16.54, -7.4, 7.4, 13.76, 15.61, 15.65, 15.2, 10.75, -0.0, -0.0, -0.0, -0.0, -0.0, -0.0, -15.65, -6.8, -4.24, 0.0, 0.0, -6.32, -6.42, -5.98, -5.52, -5.95, -5.9, -6.3, -7.27, -8.8, 0.0, 9.83, 10.28, 10.73, 10.73, 11.18, 11.62, 8.85, 12.07, 11.62, 10.28, 8.8, 7.59, -13.41, -15.39, -15.93, -13.76, -12.35, -11.64, -9.6, -8.93, -12.0, -11.91, -9.8, -8.31, -13.28, -23.69, -18.94, -16.38, -19.01, -15.27, -17.41, -17.71, -17.86, -17.25, -16.6, -15.54, -15.54, -14.51, -13.03, -11.77, -11.77, -13.89, -11.27, -10.8, -10.62, -10.36, -9.53, -10.23, -10.09, -11.37, -12.51, -12.48, -12.48, -15.39, -15.19, -14.79, -14.56, -14.56, -14.29, -13.39, -13.39, -12.86, -12.02, -12.02, -12.02, -12.52, -12.65, -12.82, -12.22, -13.8, -14.39, 0.0, 16.54, 16.54, 15.61, 14.39, 15.65, -0.0, -0.0, -0.0, -0.0, -0.0, -0.0, -14.39, -16.09, -10.12, -8.53, -9.39, -9.13, -7.9, -6.7, -6.17, -5.06, -6.42, -6.32, -7.27, -6.32, 0.0, 10.28, 10.28, 10.73, 10.73, 10.73, 10.73, 11.18, 11.62, 11.62, 10.0, 10.0, 10.0, 10.04, -12.52, -12.94, -13.44, -10.47, -9.55, -0.0, 9.39, 8.94, -9.2, -10.87, -9.71, -16.76, -23.32, -16.79, -16.56, -18.48, -18.57, -17.88, -18.33, -18.71, -18.47, -17.56, -16.02, -14.88, -13.41, -13.2, -10.18, -8.67, -9.42, -11.97, -12.21, -11.88, -11.35, -10.73, -10.73, -11.5, -12.11, -11.76, -12.81, -12.81, -15.39, -15.39, -15.19, -14.79, -14.56, -14.09, -14.09, -13.23, -13.23, -12.4, -11.53, -11.53, -12.02, -12.52, -12.65, -11.77, -11.38, -11.38, -5.09, 7.2, 13.39, 11.38, 12.52, 15.2, 11.06, -0.0, 5.37, -0.0, -0.0, -0.0, -11.7, -16.09, -14.42, -12.3, -12.14, -11.84, -8.59, -6.98, -7.27, -5.9, -5.46, -4.8, -7.27, -0.0, -0.0, 10.73, 10.73, 10.73, 10.73, 10.73, 10.73, 10.73, 10.73, 10.73, 7.59, 7.59, 7.9, 10.0, 11.18, -11.03, -10.6, -10.32, -10.28, 9.83, 9.39, 8.49, 7.6, 0.0, -13.99, -15.43, -21.63, -16.74, -17.99, -18.52, -16.99, -16.34, -17.17, -19.63, -20.06, -18.21, -17.39, -15.99, -14.29, -12.56, -11.81, -11.02, -10.79, -11.38, -12.21, -13.02, -13.28, -11.6, -10.8, -11.2, -12.04, -12.51, -12.63, -12.63, -14.99, -15.39, -15.19, -15.19, -14.09, -14.09, -13.6, -13.6, -12.76, -12.4, -11.53, -11.53, -12.02, -12.52, -13.02, -14.78, -11.54, -11.06, -6.8, 4.81, 11.06, 13.76, 15.18, 16.09, 13.99, 11.06, 9.8, 6.8, -0.0, -0.0, -11.38, -15.27, -14.75, -13.41, -12.96, -12.52, -8.53, -3.32, -3.53, -0.0, -0.0, 5.2, 7.9, 7.9, 0.0, 0.0, 10.73, 10.73, 10.73, 10.73, 10.73, 10.73, 10.73, 10.73, 9.6, 7.59, 7.59, 10.73, 0.0, -10.6, -10.6, -10.84, 0.0, 9.39, 9.39, 9.39, 8.94, 9.39, 9.3, 0.0, 8.4, 14.22, 7.49, -21.46, -19.19, -18.0, -17.25, -15.78, -19.19, -19.52, -16.32, -16.38, -15.56, -15.71, -16.19, -15.8, -15.99, -15.35, -14.39, -13.62, -13.86, -13.15, -11.14, -10.85, -13.15, -13.88, -13.5, -13.5, -14.99, -14.99, -15.39, -14.79, -14.36, -14.09, -13.6, -13.11, -12.76, -12.76, -11.94, -11.53, -11.53, -12.02, -13.02, -12.82, -12.16, -11.33, -11.06, 0.0, 16.99, 16.09, 16.09, 16.54, 15.65, 14.75, 12.79, 9.8, -0.0, -0.0, -11.06, -13.99, -14.03, -12.96, -12.52, -11.62, -0.0, 3.32, 3.19, 3.96, 4.81, 5.6, 6.45, 7.9, 12.07, 0.0, 10.28, 10.28, 10.28, 10.28, 10.28, 10.28, 10.28, 10.73, 9.33, 9.2, 11.18, 0.0, 0.0, -12.07, -11.62, -11.18, 0.0, 10.73, 9.54, 9.54, 9.11, 10.73, 10.41, 9.22, 7.04, 7.06, 15.64, -24.55, -20.56, -17.79, -20.33, -21.89, -17.88, -18.96, -16.86, -16.86, -17.16, -16.96, -16.84, -15.77, -12.99, -11.58, -14.39, -11.99, -13.15, -13.67, -12.82, -12.39, -13.75, -14.81, -14.58, -14.58, -15.19, -14.99, -15.39, -14.59, -14.36, -14.36, -13.91, -13.11, -12.76, -12.76, -11.94, -11.53, -11.53, -12.02, -12.52, -13.01, -13.02, -12.0, -11.88, -16.09, 11.7, 0.0, 16.09, 16.09, 14.79, 14.39, 14.75, -0.0, -0.0, -0.0, -10.75, -13.19, -13.15, -11.61, -11.5, -7.82, -0.0, 3.82, 3.82, 4.81, 5.8, 2.93, 3.68, 5.4, 12.52, 12.07, 10.28, 10.28, 9.83, 9.83, 9.83, 10.28, 10.28, 10.28, 10.73, 10.28, 0.0, 0.0, 0.0, -8.22, -8.22, -8.22, -0.0, 7.9, 8.18, 9.75, 9.75, 11.18, 11.2, 7.36, 0.0, -3.16, 0.0, -21.01, -18.78, -17.88, -20.51, -24.89, -23.92, -19.67, -18.08, -16.91, -16.61, -12.89, -13.15, -12.79, -12.79, -11.97, -11.39, -10.04, -10.6, -13.99, -13.88, -13.55, -13.75, -14.42, -14.62, -14.62, -15.19, -15.19, -15.39, -14.59, -14.36, -13.91, -13.91, -13.11, -12.76, -12.29, -11.94, -11.94, -11.53, -12.02, -12.52, -13.01, -13.18, -12.16, -12.37, -13.02, 0.0, 0.0, 0.0, 0.0, 7.2, 7.4, 0.0, 0.0, -0.0, -10.12, -12.79, -13.01, -11.87, -11.09, -10.19, -6.21, -1.77, -0.0, 3.14, 3.14, 3.96, -0.0, -0.0, 5.4, 8.53, 11.62, 10.73, 9.83, 9.83, 9.83, 9.83, 9.83, 9.83, 9.83, 10.28, 11.18, -8.22, -5.6, -0.0, -0.0, -4.8, -0.0, -0.0, 7.27, 9.2, 9.2, 10.73, 11.18, 10.4, 9.17, 6.4, -14.22, -4.82, -16.6, -12.68, -14.64, -17.1, -17.39, -24.54, -23.6, -19.67, -16.51, -16.5, -15.49, -14.1, -13.99, -13.77, -13.38, -13.25, -10.15, -11.04, -13.02, -14.31, -14.37, -13.94, -13.99, -14.6, -14.6, -15.19, -15.19, -15.19, -14.59, -14.59, -13.91, -13.91, -13.46, -12.76, -12.29, -12.29, -11.94, -11.94, -12.02, -12.52, -13.39, -13.58, -13.02, -12.52, -11.38, -8.93, -6.8, -10.12, 0.0, 0.0, 0.0, 0.0, -15.65, -10.75, -10.12, -11.99, -12.3, -11.84, -11.5, -9.17, -6.21, -3.96, -0.0, -0.0, 3.96, -0.0, -0.0, -0.0, 5.4, 8.22, 11.62, 10.73, 6.95, 8.8, 9.83, 9.83, 10.28, 9.83, 10.28, 10.28, 10.73, -7.9, -7.82, -7.19, -0.0, -0.0, -7.27, -0.0, 7.27, 10.28, 10.73, 11.18, 10.28, 8.55, 8.94, 11.6, -7.6, -19.59, -14.75, -9.54, -10.58, -14.23, -16.22, -16.03, -23.29, -20.75, -18.3, -16.54, -16.09, -15.08, -14.25, -14.23, -13.99, -15.37, -16.2, -13.71, -12.17, -13.8, -14.55, -13.94, -13.75, -13.55, -13.55, -15.19, -15.19, -15.19, -15.56, -14.59, -14.18, -13.91, -13.46, -13.1, -12.29, -12.29, -11.94, -11.94, -11.94, -12.87, -13.39, -13.58, -13.42, -12.52, -12.36, -10.33, -7.2, -4.81, -4.52, 0.0, 0.0, 0.0, -15.65, -13.99, -13.59, -13.19, -13.15, -12.71, -11.2, -9.96, -6.94, -2.93, -0.0, -0.0, -0.0, -0.0, -0.0, -0.0, 5.4, 5.2, 10.0, 8.85, 10.4, 10.0, 10.18, 11.62, 10.73, 10.28, 9.83, 10.28, 10.28, -6.95, -8.93, -9.17, -11.03, -8.94, -8.49, 0.0, 10.73, 10.28, 10.28, 7.59, 8.22, 4.4, 3.25, 4.6, -15.17, -19.28, -21.92, -16.82, -10.87, -9.17, -10.37, -14.16, -14.08, -20.32, -18.99, -18.31, -17.88, -17.86, -17.22, -17.35, -17.2, -17.81, -17.28, -15.02, -11.77, -12.87, -13.8, -13.5, -13.32, -12.89, -12.89, -15.19, -15.19, -15.19, -15.19, -14.79, -14.59, -13.8, -13.1, -13.1, -12.29, -11.94, -11.94, -11.94, -12.29, -13.23, -13.39, -14.39, -13.74, -14.07, -13.1, -11.7, -8.28, -8.05, -6.8, -8.43, -4.66, -4.81, -13.59, -15.2, -13.59, -13.19, -13.99, -13.44, -11.12, -10.12, -7.51, -3.82, -0.0, -0.0, -0.0, -0.0, -0.0, 3.82, 5.2, 8.22, 8.22, 8.53, 7.9, 8.93, 10.0, 9.96, 11.62, 10.28, 10.28, 10.28, 9.83, 0.0, -8.91, -9.67, -10.68, -10.73, -8.94, 0.0, 9.83, 9.83, 8.8, 7.59, 5.0, 3.53, 2.49, 0.0, -8.74, -14.02, -27.14, -24.88, -17.85, -11.88, -6.95, -4.98, -13.41, -13.75, -20.16, -20.99, -21.46, -20.56, -20.47, -20.64, -20.12, -18.19, -15.62, -16.94, -14.44, -11.99, -13.7, -13.01, -12.82, -12.46, -12.46, -15.19, -15.19, -15.19, -15.19, -14.79, -14.79, -14.18, -13.8, -13.1, -12.73, -11.94, -11.94, -11.94, -12.29, -13.23, -13.71, -14.39, -14.24, -14.39, -13.65, -11.38, -10.3, -8.93, -8.05, -9.39, -6.8, -8.18, -10.43, -14.75, -13.19, -13.99, -13.57, -13.44, -11.99, -10.01, -6.94, -3.96, -0.0, -0.0, -0.0, -0.0, -0.0, 3.82, 3.68, 3.68, 5.2, 5.2, 5.0, 7.9, 9.3, 8.58, 9.55, 11.45, 11.62, 11.18, 10.73, 9.39, 9.39, -10.28, -10.38, -10.79, -11.18, 0.0, 8.94, 9.39, 8.8, 7.9, 6.2, 6.2, 3.39, 0.0, -11.09, -12.7, -22.83, -28.61, -21.88, -14.95, -10.19, -5.8, -4.39, -13.15, -15.17, -20.47, -22.33, -19.67, -18.67, -18.67, -18.29, -14.75, -14.75, -16.54, -16.61, -14.44, -13.86, -13.37, -13.01, -12.46, -12.46, -14.79, -14.79, -14.79, -14.79, -14.79, -14.79, -14.42, -13.8, -12.73, -12.73, -12.3, -11.94, -11.94, -11.94, -13.23, -13.71, -14.39, -14.86, -14.39, -14.07, -12.22, -11.38, -10.3, -9.77, -9.77, -9.39, -9.12, -12.27, -14.75, -14.3, -14.3, -13.86, -12.72, -10.79, -6.94, -6.7, -3.82, -3.82, -0.0, -0.0, -0.0, -0.0, -0.0, 5.2, 5.0, 5.0, 5.0, 4.8, 7.59, 7.27, 8.55, 9.2, 9.6, 10.18, 11.28, 9.6, 9.83, 9.39, 7.6, -9.83, -11.03, -8.55, 0.0, 9.39, 10.73, 9.2, 7.9, 7.9, 6.2, 6.45, 0.0, -11.2, -11.9, -14.79, -20.23, -26.55, -18.61, -12.31, -8.41, -5.0, -5.4, -13.57, -15.2, -19.14, -21.01, -19.65, -19.67, -15.65, -15.16, -14.75, -15.2, -16.54, -16.99, -15.27, -13.99, -12.82, -12.46, -12.46, -14.97, -14.97, -14.79, -14.79, -14.79, -14.79, -14.42, -13.8, -13.42, -12.73, -12.3, -12.3, -11.94, -12.29, -13.23, -13.71, -14.61, -15.27, -15.12, -14.07, -13.65, -12.87, -11.88, -11.06, -11.06, -9.77, -11.06, -12.16, -14.31, -14.3, -14.3, -13.15, -12.72, -9.17, -6.7, -6.7, -3.68, -3.68, -0.0, -0.0, -0.0, -0.0, -0.0, -0.0, -0.0, -0.0, -0.0, 4.8, 7.27, 6.95, 9.2, 7.27, 8.03, 8.93, 9.2, 10.6, 10.28, 9.39, 8.94, 9.39, -6.95, -7.27, -0.0, 10.28, 10.28, 10.4, 3.53, 0.0, 3.25, 3.68, 0.0, -11.87, -11.2, -13.41, -14.25, -20.36, -21.65, -15.22, -11.06, -9.21, -5.95, -9.5, -14.73, -14.3, -18.78, -21.01, -16.44, -15.78, -15.61, -15.2, -14.75, -16.09, -16.39, -17.1, -16.17, -15.04, -13.82, -13.82, -14.97, -14.97, -14.79, -14.79, -14.79, -14.79, -14.03, -14.03, -13.42, -13.02, -12.3, -12.3, -12.3, -12.65, -13.23, -14.17, -14.61, -15.27, -14.7, -14.53, -14.07, -13.02, -12.52, -12.73, -12.02, -11.68, -11.87, -13.03, -14.31, -14.3, -14.3, -13.15, -12.72, -9.17, -6.94, -3.82, -3.68, -0.0, -0.0, -0.0, -0.0, -0.0, -0.0, -0.0, -0.0, -0.0, -0.0, -0.0, -0.0, -0.0, 6.95, 8.8, 7.87, 7.56, 7.9, 7.68, 10.6, 10.73, 9.83, 8.8, 7.27, -0.0, 9.2, 10.28, 10.6, 8.22, 6.2, 0.0, -4.4, 0.0, 0.0, -13.67, -12.6, -14.65, -19.2, -20.12, -21.13, -19.37, -15.83, -13.61, -10.36, -9.48, -13.01, -14.31, -13.86, -14.66, -17.02, -17.41, -16.87, -15.65, -15.2, -15.65, -16.09, -15.62, -17.3, -16.26, -14.75, -14.75, -14.56, -14.56, -14.39, -14.39, -14.39, -14.39, -14.39, -14.03, -13.42, -13.02, -13.02, -12.3, -12.3, -12.3, -13.54, -13.78, -15.02, -14.84, -14.84, -14.7, -13.99, -13.02, -13.42, -13.29, -13.29, -13.59, -13.2, -13.19, -14.47, -14.3, -14.3, -13.86, -12.72, -10.79, -6.94, -3.82, -3.68, -0.0, -0.0, -0.0, -0.0, -0.0, -0.0, 10.28, -0.0, -0.0, -0.0, 2.83, 4.2, 6.95, 6.95, 9.39, 6.64, 6.64, 6.95, 6.95, 6.64, 8.05, 9.6, 8.8, 7.27, 4.6, 9.6, 11.18, 8.93, 9.6, 7.9, 0.0, -6.64, -4.4, -7.27, -13.23, -15.34, -16.79, -16.41, -18.75, -20.56, -21.9, -18.85, -18.26, -17.73, -13.97, -12.86, -13.99, -14.03, -15.2, -14.36, -17.72, -18.13, -19.22, -18.33, -17.43, -17.41, -16.54, -15.18, -17.77, -16.29, -16.29, -14.56, -14.56, -14.39, -14.39, -14.39, -14.39, -14.03, -14.03, -13.64, -13.02, -13.02, -12.3, -12.3, -12.3, -13.16, -13.78, -14.6, -14.84, -15.18, -14.7, -14.24, -13.74, -13.03, -13.03, -13.59, -13.89, -13.19, -14.18, -14.11, -14.3, -14.3, -14.3, -13.44, -11.16, -7.19, -3.96, -3.82, -0.0, -0.0, -0.0, -0.0, -0.0, -0.0, 10.28, 9.83, 7.59, 3.25, 2.97, 4.2, 6.95, 6.64, 9.39, 9.39, 6.64, 6.64, 5.46, 5.46, 6.3, 6.64, 7.27, 5.7, 4.8, 11.18, 9.6, 9.75, 8.8, 9.2, 10.8, 0.0, -9.83, 0.0, -10.28, -14.4, -22.8, -22.35, -18.27, -17.84, -16.96, -18.78, -20.16, -20.21, -17.94, -14.79, -13.99, -15.16, -16.35, -16.06, -15.43, -17.24, -16.9, -15.18, -15.18, -16.96, -17.86, -16.54, -16.07, -17.86, -17.86, -14.56, -14.56, -14.56, -14.39, -14.39, -14.39, -14.03, -14.03, -13.64, -13.02, -13.02, -12.62, -12.3, -12.3, -13.16, -13.58, -14.21, -14.95, -14.84, -14.84, -14.44, -13.99, -13.34, -13.34, -13.59, -13.19, -13.48, -13.44, -14.75, -13.41, -13.86, -14.3, -13.44, -11.16, -7.44, -7.19, -3.96, -0.0, -0.0, -0.0, -0.0, -0.0, -0.0, 7.27, 9.2, 9.2, 7.27, 4.4, 6.64, 6.64, 9.39, 9.39, 9.39, 9.39, 8.4, 5.21, 4.66, 4.66, 4.66, 4.83, 5.95, 7.59, 10.28, 9.33, 9.75, 9.11, 8.0, 8.55, 8.22, 0.0, 0.0, 0.0, -12.96, -17.88, -29.5, -21.24, -15.18, -12.66, -13.79, -17.43, -19.17, -17.64, -16.48, -15.58, -16.0, -16.91, -17.38, -16.99, -16.39, -14.22, -14.22, -14.67, -15.9, -16.0, -17.88, -16.54, -16.54, -16.54, -14.16, -14.16, -14.56, -14.39, -14.39, -14.39, -14.03, -14.03, -13.64, -13.27, -13.02, -12.62, -12.3, -12.3, -13.16, -13.58, -14.21, -14.6, -14.95, -14.95, -14.44, -13.59, -13.59, -13.34, -13.43, -13.43, -13.28, -13.96, -13.41, -14.75, -12.96, -13.23, -11.99, -11.16, -7.44, -7.19, -3.96, -0.0, -0.0, -0.0, -0.0, -0.0, 7.27, 7.27, 7.27, 7.27, 7.27, 6.95, 9.39, 9.39, 9.39, 9.39, 9.39, 9.39, 9.39, 9.39, 6.64, 3.7, 4.2, 4.83, 5.21, 10.28, 11.18, 9.83, 9.83, 10.28, 9.39, 8.67, 9.6, 8.22, 7.59, 0.0, -6.2, -15.93, -28.32, -20.03, -4.12, -0.0, -0.0, -10.12, -15.65, -16.99, -16.92, -16.71, -17.09, -17.81, -18.65, -17.64, -16.54, -14.26, -13.38, -13.32, -14.0, -16.66, -15.47, -15.2, -16.09, -16.09, -14.16, -14.16, -14.16, -14.56, -14.39, -14.39, -14.03, -14.03, -13.64, -13.27, -13.27, -13.02, -12.62, -12.3, -13.16, -13.58, -14.38, -14.73, -14.95, -14.6, -14.19, -13.8, -13.59, -13.59, -13.62, -13.86, -13.44, -13.7, -14.19, -13.86, -12.83, -12.79, -12.04, -11.6, -9.17, -7.19, -4.1, -0.0, -0.0, -0.0, -0.0, -0.0, 7.59, 7.27, 7.27, 7.27, 10.28, 10.28, 9.83, 9.83, 9.39, 9.39, 9.39, 9.39, 9.39, 9.39, 9.39, 9.39, 4.0, 5.63, 11.62, 10.73, 10.73, 10.73, 9.39, 9.83, 9.83, 9.83, 10.73, 8.22, 0.0, 0.0, -5.4, -13.28, -23.23, -10.13, 6.22, 15.99, 16.09, 16.09, -16.09, -16.54, -17.43, -17.35, -17.15, -17.78, -18.65, -17.68, -15.61, -14.3, -12.96, -12.96, -12.77, -14.79, -16.56, -14.73, -16.09, -16.09, -14.16, -14.16, -14.16, -14.16, -14.16, -14.39, -14.03, -13.64, -13.64, -13.27, -13.27, -12.65, -12.62, -12.3, -12.73, -13.58, -14.38, -14.73, -14.73, -14.31, -14.19, -13.8, -13.8, -13.19, -13.62, -13.57, -13.44, -13.7, -14.19, -14.3, -13.72, -12.3, -12.04, -11.2, -9.17, -7.19, -4.1, -0.0, -0.0, -0.0, -0.0, -0.0, -0.0, 7.27, 10.28, 10.28, 10.28, 10.28, 9.83, 9.83, 9.83, 9.39, 9.39, 9.39, 9.39, 8.94, 8.94, 8.0, 8.0, 8.48, 8.0, 11.18, 10.73, 10.73, 10.73, 10.28, 9.83, 10.73, 10.73, 10.4, 0.0, 0.0, -6.2, -9.12, -13.59, -22.35, 0.0, 19.22, 13.28, 0.0, 0.0, -16.99, -16.54, -16.44, -16.22, -16.48, -17.35, -15.71, -14.18, -13.86, -13.41, -13.41, -13.41, -13.32, -15.22, -16.16, -15.63, -15.63, -14.16, -14.16, -14.16, -14.16, -14.16, -13.83, -13.83, -13.83, -13.83, -13.49, -13.27, -12.89, -12.65, -13.02, -13.02, -13.16, -14.18, -14.31, -14.31, -14.31, -13.97, -13.97, -13.39, -13.39, -13.62, -13.57, -13.8, -14.03, -14.3, -14.3, -13.72, -12.72, -12.04, -11.2, -8.85, -6.94, -3.96, -0.0, -0.0, -0.0, -0.0, -0.0, -0.0, -0.0, -0.0, 10.28, 10.28, 10.28, 9.83, 9.83, 9.83, 9.39, 9.39, 9.39, 9.39, 9.39, 8.0, 8.0, 8.48, 8.49, 8.48, 8.48, 11.18, 9.75, 10.28, 11.18, 10.28, 10.73, 10.73, 11.18, 8.85, 0.0, 0.0, -4.01, -3.68, 0.0, 0.0, -9.2, -14.86, -20.56, -19.22, -16.99, -15.2, -14.64, -14.66, -14.47, -14.47, -13.96, -13.75, -13.72, -13.86, -13.86, -13.41, -13.41, -13.31, -15.22, -16.39, -16.39, -13.75, -13.75, -13.75, -13.75, -14.16, -13.83, -13.83, -13.83, -13.83, -13.43, -13.27, -12.89, -12.89, -12.65, -12.65, -13.03, -13.77, -14.11, -14.42, -14.42, -13.97, -13.56, -13.56, -13.39, -13.77, -13.57, -13.88, -13.63, -13.86, -13.86, -13.72, -12.89, -12.45, -11.6, -8.85, -6.94, -5.6, -5.6, -0.0, -0.0, -0.0, -0.0, 0.0, 0.0, -0.0, 0.0, 0.0, 0.0, 9.83, 9.83, 9.83, 9.39, 9.39, 9.39, 9.39, 8.0, 8.0, 8.0, 7.6, 7.6, 8.94, 8.49, 10.73, 9.75, 10.73, 11.18, 10.28, 10.28, 10.73, 10.73, 8.22, 0.0, 0.0, 0.0, -4.99, -8.4, -7.0, -14.13, -21.46, -21.01, -19.22, -16.99, -14.75, -13.72, -13.44, -13.53, -13.59, -13.53, -14.19, -14.19, -14.3, -14.3, -13.86, -13.72, -13.86, -13.83, -14.47, -16.13, -13.75, -13.75, -13.75, -13.75, -13.43, -13.43, -13.83, -13.83, -13.43, -13.43, -13.43, -13.25, -12.89, -12.65, -12.65, -13.03, -13.41, -14.11, -14.11, -14.11, -13.7, -13.7, -13.56, -13.77, -13.35, -13.57, -13.88, -13.8, -13.86, -13.86, -13.75, -12.89, -12.45, -11.6, -10.79, -8.85, -8.85, -5.6, -0.0, -0.0, -0.0, -0.0, 0.0, 0.0, -0.0, -0.0, 0.0, 0.0, 10.28, 9.83, 9.83, 9.83, 9.39, 9.39, 8.4, 8.0, 8.0, 8.0, 7.6, 6.01, 7.6, 8.49, 10.73, 8.8, 10.28, 10.73, 10.73, 10.28, 10.73, 11.18, 7.9, 0.0, 0.0, -11.7, -22.05, -21.59, -12.01, -13.39, -16.96, -18.33, -16.12, -16.09, -15.65, -14.6, -13.32, -13.44, -14.4, -14.4, -14.66, -14.66, -14.66, -14.19, -14.3, -14.3, -13.77, -13.86, -13.83, -14.47, -13.75, -13.75, -13.75, -13.75, -13.43, -13.43, -13.43, -13.43, -13.43, -13.43, -13.43, -13.25, -13.25, -12.89, -12.65, -12.65, -13.41, -13.77, -14.23, -14.23, -13.7, -13.7, -13.56, -13.89, -13.35, -13.67, -13.88, -13.8, -13.86, -13.86, -13.31, -12.89, -12.72, -11.6, -10.79, -10.41, -8.85, -5.6, -0.0, -0.0, -0.0, -0.0, 0.0, 0.0, 0.0, -0.0, 0.0, 0.0, 9.83, 9.83, 9.83, 9.83, 9.83, 9.39, 6.64, 8.4, 8.0, 7.6, 6.01, 6.01, 6.01, 7.6, 8.05, 10.28, 9.2, 9.2, 9.33, 10.28, 10.18, 10.0, 0.0, 0.0, 0.0, -10.43, -17.19, -25.02, -27.72, -11.38, -13.59, -14.3, -14.3, -14.75, -14.75, -14.3, -13.72, -13.75, -14.23, -14.84, -15.11, -15.12, -14.66, -14.66, -14.3, -14.3, -13.86, -13.86, -13.86, -13.83, -13.04, -13.04, -13.04, -13.04, -13.04, -13.04, -13.43, -13.43, -13.43, -13.43, -13.43, -13.43, -13.25, -12.89, -12.89, -12.65, -13.03, -13.77, -13.81, -13.81, -13.81, -13.7, -13.7, -13.47, -13.75, -13.94, -13.67, -13.81, -13.86, -13.86, -13.31, -12.89, -12.3, -12.04, -11.6, -10.79, -8.85, -5.6, -0.0, -0.0, -0.0, 0.0, 0.0, 10.73, 10.28, 0.0, 9.39, 9.39, 9.39, 9.83, 9.83, 6.95, 6.95, 6.95, 6.64, 6.64, 6.32, 7.6, 6.01, 6.01, 6.01, 5.69, 7.27, 9.83, 9.83, 7.27, 9.33, 10.73, 9.75, 7.9, 0.0, 0.0, 0.0, 0.0, -15.65, -16.74, -29.92, -28.61, -15.65, -12.52, -13.41, -14.3, -13.86, -13.41, -13.72, -13.75, -13.97, -14.23, -15.27, -15.57, -15.12, -15.11, -14.3, -14.3, -14.3, -13.86, -13.86, -13.86, -13.19, -13.19, -13.04, -13.04, -13.04, -13.04, -13.04, -13.43, -13.43, -13.43, -13.43, -13.43, -13.25, -12.89, -12.89, -12.89, -13.25, -13.92, -13.81, -13.81, -13.81, -13.7, -13.28, -13.57, -13.75, -13.94, -13.7, -13.81, -13.86, -13.41, -13.31, -12.89, -12.3, -12.04, -11.6, -10.79, -9.17, -8.85, -8.53, -0.0, 0.0, 0.0, 0.0, 11.18, 11.18, 10.73, 9.83, 9.39, 6.64, 6.64, 6.64, 6.64, 6.95, 6.95, 6.64, 6.64, 6.32, 6.32, 6.01, 5.69, 5.69, 5.69, 5.69, 9.83, 9.83, 10.28, 10.28, 10.28, 9.2, 6.2, 3.53, 0.0, 0.0, 0.0, -13.41, -11.38, -17.1, -30.71, -29.06, -19.67, -16.91, -16.66, -15.87, -16.31, -15.47, -15.04, -13.56, -13.97, -15.18, -15.55, -15.12, -15.12, -14.66, -14.3, -13.86, -13.86, -13.86, -13.86, -13.19, -13.19, -13.19, -13.19, -13.19, -13.04, -13.04, -13.04, -13.04, -13.04, -13.04, -13.04, -13.04, -12.89, -12.89, -12.89, -13.25, -13.52, -13.52, -13.81, -13.81, -13.81, -13.28, -13.57, -13.75, -13.99, -13.7, -13.82, -13.86, -13.41, -13.33, -13.28, -12.3, -12.04, -11.6, -11.6, -10.79, -11.2, -8.53, 0.0, 0.0, 0.0, 0.0, 0.0, 10.73, 7.59, 7.27, 6.95, 6.64, 6.64, 6.64, 4.2, 4.2, 4.2, 4.2, 4.2, 4.2, 4.0, 6.01, 5.69, 5.69, 5.69, 5.69, 9.83, 9.39, 9.83, 10.28, 10.73, 9.2, 5.95, 3.39, 0.0, 0.0, -3.68, 0.0, -0.0, -12.01, -20.09, -29.88, -28.05, -25.48, -22.0, -20.75, -19.08, -17.19, -15.07, -13.81, -13.56, -15.04, -15.27, -15.12, -14.68, -14.68, -14.22, -14.23, -13.81, -13.81, -13.81, -13.19, -13.19, -13.19, -13.19, -13.19, -13.04, -13.04, -13.04, -13.04, -13.04, -13.04, -13.04, -13.04, -12.72, -12.51, -12.51, -12.86, -13.19, -13.52, -13.81, -13.81, -13.39, -13.28, -13.57, -13.82, -13.99, -13.72, -13.82, -13.86, -13.41, -13.41, -13.28, -12.83, -12.79, -12.71, -12.14, -11.87, -11.2, -12.52, 0.0, 0.0, 0.0, 0.0, 0.0, 7.59, 7.59, 7.27, 6.95, 4.4, 4.2, 4.2, 4.2, 4.2, 4.2, 4.2, 4.2, 4.2, 4.0, 4.0, 6.01, 5.69, 5.69, 5.69, 7.6, 9.83, 9.83, 10.28, 9.83, 9.75, 7.27, 7.59, 4.4, 0.0, 0.0, 0.0, 9.17, -8.18, -12.96, -19.34, -26.72, -30.4, -28.93, -24.17, -19.19, -16.85, -15.19, -15.07, -13.81, -13.97, -14.31, -15.05, -13.34, -13.77, -13.77, -13.79, -13.8, -13.8, -13.8, -13.19, -13.19, -13.19, -13.19, -13.04, -13.04, -13.04, -13.04, -13.04, -13.04, -13.04, -13.04, -13.04, -12.72, -12.72, -12.51, -12.86, -13.19, -13.52, -13.52, -13.39, -13.39, -13.28, -13.57, -13.82, -13.99, -13.72, -13.82, -13.86, -13.41, -13.41, -13.41, -12.83, -12.79, -12.71, -12.14, -12.52, -12.52, -12.52, -12.07, 0.0, 0.0, 0.0, 0.0, 0.0, 7.27, 7.27, 4.6, 4.6, 4.4, 4.4, 4.2, 4.2, 4.2, 4.2, 4.2, 4.2, 4.0, 4.0, 3.8, 3.6, 5.37, 6.8, 7.6, 7.6, 9.83, 9.83, 8.94, 9.39, 9.83, 8.8, 8.8, 4.6, 0.0, 0.0, 0.0, 0.0, -11.06, -12.64, -17.59, -24.6, -32.63, -30.43, -20.96, -16.69, -15.99, -15.19, -14.79, -13.56, -13.99, -14.16, -12.88, -13.33, -13.34, -13.34, -13.19, -13.19, -13.19, -13.19, -13.19, -13.19, -13.19, -12.64, -12.64, -13.04, -13.04, -13.04, -13.04, -13.04, -13.04, -12.72, -12.72, -12.72, -12.51, -12.86, -13.19, -13.19, -13.52, -13.39, -13.39, -13.28, -13.57, -13.82, -13.32, -13.55, -13.7, -13.81, -13.41, -13.41, -13.41, -12.96, -12.96, -12.96, -12.52, -12.52, -12.52, -12.52, -12.07, -11.62, 0.0, 0.0, 0.0, 0.0, 0.0, 4.6, 4.6, 4.6, 4.6, 4.4, 4.4, 4.4, 4.2, 4.0, 4.0, 4.0, 4.0, 2.83, 2.69, 2.69, 2.54, 6.8, 7.6, 6.94, 6.95, 9.39, 0.0, 0.0, 9.39, 8.4, 8.8, 4.8, 0.0, 0.0, 0.0, -9.8, -13.19, -11.06, -15.19, -19.84, -27.72, -29.95, -25.79, -20.93, -17.16, -15.52, -14.71, -14.65, -13.44, -13.44, -13.09, -12.71, -12.9, -12.75, -12.79, -12.79, -12.79, -13.19, -13.19, -13.19, -12.64, -12.64, -12.64, -12.64, -13.04, -13.04, -13.04, -13.04, -12.72, -12.72, -12.72, -12.72, -12.51, -12.86, -12.86, -13.19, -12.96, -12.96, -13.28, -13.28, -13.57, -13.57, -13.32, -13.55, -13.7, -13.81, -13.36, -13.41, -13.41, -12.96, -12.96, -12.96, -12.52, -12.52, -10.8, -10.8, -12.07, -11.62, -11.62, 0.0, 0.0, 0.0, 0.0, 0.0, 0.0, 0.0, 0.0, 0.0, 0.0, 0.0, 4.4, 4.2, 4.0, 4.0, 2.83, 2.83, 2.69, 2.69, 2.54, 6.8, 7.15, 6.71, 8.4, 6.64, 0.0, 0.0, 0.0, 0.0, 4.6, 5.0, 0.0, 0.0, -5.6, -11.99, -14.3, -13.19, -15.61, -17.64, -22.13, -27.27, -27.5, -23.02, -18.79, -16.19, -14.53, -13.15, -12.72, -13.09, -12.66, -12.71, -12.71, -12.79, -12.79, -12.79, -12.79, -13.19, -13.19, -12.79, -12.64, -12.64, -12.64, -12.64, -13.04, -13.04, -13.04, -12.72, -12.72, -12.72, -12.72, -12.72, -12.72, -12.13, -12.47, -12.62, -12.96, -12.96, -12.96, -13.28, -13.28, -13.05, -13.32, -13.32, -13.5, -13.67, -13.36, -13.33, -13.41, -12.96, -12.79, -12.27, -12.14, -11.87, -10.8, -10.8, -8.53, -8.53, -8.22, -8.22, 0.0, 0.0, 0.0, 0.0, 0.0, 0.0, 0.0, 0.0, 0.0, 0.0, 0.0, 4.2, 4.2, 4.0, 2.83, 2.69, 2.69, 2.69, 3.6, 7.6, 7.6, 7.15, 8.49, 8.48, 8.4, 0.0, 0.0, 0.0, 0.0, 4.8, 0.0, 0.0, -8.85, -9.17, -13.41, -14.3, -14.9, -16.82, -18.21, -22.18, -27.5, -22.88, -19.92, -13.7, -13.27, -12.71, -11.99, -11.56, -11.45, -11.84, -11.88, -11.91, -12.35, -12.35, -12.35, -12.79, -12.79, -12.79, -12.64, -12.64, -12.64, -12.33, -13.04, -13.04, -12.72, -12.72, -12.72, -12.72, -12.72, -12.72, -12.33, -12.13, -12.47, -12.62, -12.62, -12.96, -12.79, -12.79, -12.74, -12.74, -13.05, -13.32, -13.5, -13.44, -13.19, -13.33, -13.31, -12.83, -12.3, -11.62, -11.2, -10.04, -8.53, -8.53, -8.53, -8.53, -5.2, -5.2, -5.0, 0.0, 0.0, 0.0, 0.0, 0.0, 0.0, 0.0, 0.0, 0.0, 0.0, 0.0, 0.0, 0.0, 0.0, 0.0, 2.69, 2.69, 3.6, 8.05, 7.6, 7.15, 8.94, 8.94, 8.91, 8.4, 0.0, 0.0, -6.95, 0.0, 0.0, 0.0, 0.0, -12.96, -13.41, -13.86, -14.99, -15.04, -16.48, -18.22, -23.69, -25.69, -18.11, -14.66, -12.94, -11.58, -12.03, -11.21, -10.35, -10.78, -11.44, -11.46, -11.76, -11.76, -11.76, -12.79, -12.79, -12.79, -12.64, -12.64, -12.33, -12.33, -12.33, -12.72, -12.72, -12.72, -12.72, -12.01, -12.39, -12.72, -12.33, -12.13, -12.47, -12.27, -12.62, -12.62, -12.42, -12.79, -12.39, -12.39, -12.74, -12.93, -13.25, -13.01, -12.94, -13.09, -12.58, -12.46, -11.6, -10.01, -8.85, -8.53, -6.7, -6.7, -6.7, -6.45, -3.68, -5.2, -5.0, -5.0, 0.0, 0.0, 0.0, 0.0, 0.0, 0.0, 0.0, 0.0, 0.0, 0.0, 0.0, 0.0, 0.0, 0.0, 0.0, 0.0, 0.0, 0.0, 7.6, 7.6, 7.6, 8.94, 8.94, 8.48, 8.4, 0.0, -9.83, -9.83, -9.83, 0.0, 0.0, -12.52, -12.96, -13.86, -13.99, -14.61, -15.18, -16.44, -21.01, -25.57, -19.84, -15.96, -14.23, -12.35, -12.04, -11.95, -11.76, -11.28, -11.02, -11.02, -11.05, -11.05, -11.05, -12.79, -12.79, -12.79, -12.64, -12.33, -12.33, -12.33, -12.33, -12.72, -12.72, -12.72, -12.01, -12.01, -12.01, -12.33, -12.33, -12.13, -12.47, -12.27, -12.27, -12.62, -12.62, -12.03, -12.03, -12.39, -12.2, -12.58, -12.93, -12.72, -12.6, -12.72, -12.14, -11.92, -9.77, -8.85, -7.51, -5.4, -5.4, -5.4, -5.4, -5.2, -3.68, -3.53, -3.53, -3.53, -3.53, -3.39, 0.0, 0.0, 0.0, 0.0, 0.0, 0.0, 0.0, 0.0, 0.0, 0.0, 0.0, 0.0, 0.0, 0.0, 0.0, 0.0, 0.0, 8.05, 7.6, 9.39, 9.39, 9.39, 8.91, 6.64, 0.0, 0.0, -10.28, -10.73, -11.62, -12.52, -13.41, -13.41, -13.23, -13.75, -14.75, -16.09, -27.27, -25.93, -20.49, -18.08, -15.96, -14.31, -12.37, -12.49, -12.85, -12.37, -11.49, -11.05, -11.05, -11.05, -11.05, -12.79, -12.79, -12.79, -12.33, -12.33, -12.33, -12.33, -12.33, -12.33, -12.33, -12.01, -12.01, -12.01, -12.01, -12.33, -12.13, -12.13, -12.13, -12.27, -12.27, -12.27, -12.62, -12.03, -12.03, -11.8, -12.2, -12.2, -12.39, -11.77, -11.99, -11.72, -10.99, -10.55, -8.85, -7.82, -6.21, -4.48, -4.48, -4.32, -4.32, -2.82, -2.82, -2.71, -2.71, -3.53, -3.53, -3.39, -3.39, 0.0, 0.0, 0.0, 0.0, 0.0, 0.0, 0.0, 0.0, 0.0, 0.0, 0.0, 0.0, 0.0, 0.0, 0.0, -5.69, 5.69, 8.05, 8.49, 8.94, 10.28, 9.33, 8.8, 6.95, 0.0, 0.0, -10.73, -10.0, -12.07, -12.96, -13.15, -12.72, -12.74, -14.75, -20.12, -26.61, -24.49, -21.01, -18.47, -16.31, -14.75, -13.01, -11.95, -11.96, -12.03, -11.14, -11.05, -11.05, -11.05, -11.05, -12.5, -12.5, -12.5, -12.33, -12.33, -12.33, -12.33, -12.33, -12.33, -12.01, -12.01, -12.01, -12.01, -11.79, -11.79, -12.13, -12.13, -12.13, -11.9, -11.9, -12.27, -12.27, -11.66, -12.03, -11.8, -11.8, -11.53, -11.58, -11.31, -10.99, -10.79, -10.37, -9.17, -8.01, -6.94, -5.4, -5.4, -3.82, -4.32, -4.32, -2.28, -2.28, -2.71, -2.71, -2.71, -2.71, -2.6, -3.39, -3.25, -3.25, -3.11, -3.11, -3.11, -3.11, 0.0, 0.0, 0.0, 0.0, 0.0, 0.0, 0.0, 0.0, -2.54, -3.6, 0.0, 7.63, 8.38, 8.43, 10.14, 9.97, 9.6, 9.2, 7.27, 0.0, -7.59, -8.55, -11.28, -12.52, -12.3, -12.89, -12.56, -13.81, -18.05, -26.89, -24.91, -20.56, -16.92, -14.95, -13.44, -11.71, -10.89, -11.05, -12.03, -12.03, -11.46, -11.02, -11.02, -11.02, -12.5, -12.5, -12.5, -12.33, -12.33, -12.33, -12.01, -12.01, -12.01, -12.01, -12.01, -12.01, -11.79, -11.79, -11.79, -12.13, -12.13, -11.79, -11.9, -11.9, -11.9, -12.03, -11.66, -11.39, -11.39, -11.09, -11.09, -10.85, -10.47, -10.47, -10.23, -9.17, -8.44, -7.28, -6.21, -5.4, -5.4, -5.2, -3.68, -3.68, -1.91, -2.28, -2.19, -2.19, -2.71, -2.6, -2.6, -2.49, -3.25, -3.25, -3.11, -3.11, -3.11, -2.97, -2.97, -2.97, -2.97, 0.0, 0.0, 0.0, 0.0, 0.0, 0.0, -2.54, 0.0, 7.2, 7.89, 8.41, 8.43, 10.52, 10.18, 9.6, 4.8, 0.0, -4.6, -7.27, -7.27, -11.4, -12.35, -12.14, -12.56, -13.99, -17.58, -21.2, -28.49, -22.8, -17.37, -14.99, -11.28, -9.58, -10.84, -11.91, -12.35, -11.88, -11.88, -11.88, -11.88, -11.88, -12.11, -12.11, -12.33, -12.33, -12.33, -12.33, -12.01, -12.01, -12.01, -12.01, -12.01, -11.79, -11.79, -11.79, -11.79, -11.79, -11.79, -11.54, -11.54, -11.54, -11.9, -11.64, -11.64, -11.39, -11.39, -11.09, -10.38, -10.38, -9.97, -10.02, -9.17, -8.54, -7.51, -7.28, -6.21, -5.99, -5.99, -4.58, -3.19, -3.68, -1.91, -1.91, -1.84, -2.19, -2.19, -2.1, -2.6, -2.49, -2.49, -2.49, -3.11, -3.11, -3.11, -2.97, -2.97, -2.97, -2.97, -2.97, -2.97, 0.0, 0.0, 0.0, 0.0, -1.95, -3.6, 0.0, 7.2, 8.06, 8.17, 10.08, 9.97, 9.2, 4.4, 0.0, -4.6, -8.55, -7.87, -8.58, -11.4, -12.39, -12.56, -13.19, -15.93, -18.41, -27.71, -25.39, -19.22, -16.79, -13.07, -11.33, -11.71, -12.35, -12.81, -13.19, -12.75, -12.71, -12.71, -12.71, -12.11, -12.11, -12.33, -12.33, -12.33, -12.01, -12.01, -12.01, -12.01, -12.01, -12.01, -11.79, -11.79, -11.79, -11.79, -11.79, -11.54, -11.54, -11.54, -11.54, -11.25, -10.9, -10.98, -10.98, -10.65, -10.65, -10.25, -9.48, -9.97, -9.17, -8.61, -7.96, -6.94, -6.63, -6.63, -5.4, -5.99, -4.75, -3.19, -3.19, -1.64, -1.91, -1.84, -1.84, -2.1, -2.1, -2.1, -2.49, -2.49, -2.39, -2.39, -4.4, -4.4, -5.21, -5.21, -2.97, -2.97, -2.97, -2.83, -2.83, -2.17, -2.06, 0.0, -1.58, -2.54, 0.0, 6.01, 7.89, 8.06, 10.08, 10.08, 8.55, 6.95, 0.0, -4.4, -8.18, -8.8, -7.87, -9.2, -12.35, -12.89, -13.15, -15.11, -17.43, -24.29, -26.9, -21.01, -18.72, -15.02, -11.76, -11.76, -12.63, -13.5, -13.63, -13.19, -12.71, -12.71, -12.71, -11.94, -11.94, -11.94, -11.94, -12.33, -12.01, -12.01, -12.01, -12.01, -12.01, -11.79, -11.79, -11.79, -11.79, -11.54, -11.18, -11.18, -11.18, -11.25, -10.86, -10.86, -10.58, -10.58, -10.22, -10.22, -9.8, -10.25, -9.48, -8.97, -8.1, -7.43, -6.67, -6.94, -6.08, -6.08, -6.4, -5.4, -4.24, -3.19, -3.19, -3.19, -1.64, -1.84, -1.84, -1.76, -2.1, -2.1, -2.02, -2.49, -2.39, -4.4, -4.4, -4.4, -4.2, -5.21, -2.97, -2.97, -2.83, -2.17, -2.17, -2.17, -2.06, -1.67, -1.58, -1.95, -2.54, 0.0, 7.07, 7.89, 8.48, 8.0, 9.6, 7.27, 0.0, 0.0, -6.95, -8.18, -8.8, -6.44, -10.8, -12.96, -13.28, -13.97, -16.02, -23.53, -26.02, -21.83, -19.67, -16.82, -13.94, -12.2, -12.58, -13.01, -13.27, -13.15, -12.71, -12.71, -12.71, -11.94, -11.94, -11.94, -11.63, -11.63, -11.63, -11.63, -11.63, -11.63, -11.42, -11.42, -11.42, -11.42, -11.18, -11.18, -11.18, -11.18, -10.9, -10.9, -10.52, -10.18, -10.18, -10.18, -9.8, -9.8, -9.8, -9.32, -9.02, -8.49, -7.62, -7.43, -7.43, -6.44, -6.94, -6.08, -5.86, -5.4, -4.24, -4.24, -3.19, -3.19, -3.07, -3.07, -1.84, -1.76, -3.39, -3.82, -2.02, -3.65, -3.65, -3.65, -3.65, -4.2, -4.2, -4.2, -4.2, -4.0, -4.0, -4.0, -4.0, -2.17, -2.06, -1.67, -1.67, -1.67, -2.69, 0.0, 2.69, 6.01, 7.15, 8.05, 8.94, 7.27, 4.8, 0.0, -4.4, -6.95, -8.55, -7.59, -8.22, -10.41, -14.3, -13.58, -15.63, -20.79, -24.6, -22.93, -19.67, -17.39, -15.49, -14.37, -12.18, -12.04, -12.04, -12.85, -12.42, -12.42, -12.42, -11.63, -11.63, -11.63, -11.63, -11.63, -11.63, -11.63, -11.63, -11.32, -11.09, -11.42, -11.42, -11.42, -11.18, -11.18, -11.18, -10.9, -10.9, -10.9, -10.18, -10.18, -10.18, -9.8, -9.8, -9.36, -9.36, -8.87, -8.49, -8.49, -7.89, -6.96, -7.43, -6.67, -6.44, -6.08, -6.08, -4.9, -4.24, -4.24, -4.08, -2.82, -3.07, -3.07, -3.39, -3.39, -3.39, -3.25, -3.25, -3.65, -3.65, -3.65, -3.65, -3.49, -4.2, -4.2, -4.2, -4.0, -4.0, -4.0, -4.0, -4.0, -3.15, -3.15, -1.67, -1.67, -2.06, -2.69, 0.0, 4.96, 6.32, 5.36, 6.64, 5.59, 3.53, 0.0, -4.4, -6.95, -8.55, -9.6, -9.3, -10.41, -13.86, -11.68, -14.13, -17.25, -24.35, -24.25, -21.9, -17.83, -16.35, -16.05, -14.23, -12.04, -11.72, -11.72, -12.39, -12.39, -12.39, -11.63, -11.63, -11.63, -11.63, -11.63, -11.63, -11.63, -11.63, -11.32, -11.09, -11.42, -11.42, -11.42, -11.18, -11.18, -11.18, -10.9, -10.9, -10.9, -10.18, -10.18, -10.18, -9.8, -9.8, -9.36, -9.36, -8.87, -8.49, -8.49, -7.89, -6.96, -7.43, -6.67, -6.44, -6.08, -6.08, -4.9, -4.24, -4.24, -4.08, -2.82, -3.07, -3.07, -3.39, -3.39, -3.39, -3.25, -3.25, -3.65, -3.65, -3.65, -3.65, -3.49, -4.2, -4.2, -4.2, -4.0, -4.0, -4.0, -4.0, -4.0, -3.15, -3.15, -1.67, -1.67, -2.06, -2.69, 0.0, 4.96, 6.32, 5.36, 6.64, 5.59, 3.53, 0.0, -4.4, -9.75, -8.55, -9.6, -9.3, -10.41, -12.72, -11.33, -12.7, -14.71, -21.04, -23.42, -23.25, -21.39, -18.08, -18.08, -16.82, -14.94, -12.66, -11.75, -12.13, -12.13, -12.13]}]